Time,TemperatureF,DewpointF,PressureIn,WindDirection,WindDirectionDegrees,WindSpeedMPH,WindSpeedGustMPH,Humidity,HourlyPrecipIn,Conditions,Clouds,dailyrainin,SoftwareType,DateUTC
2013-01-22 00:00:00,28.0,1.3,30.00,South,182,0.0,3.6,31,0.00,,---,0.00,VWS V14.01,2013-01-22 07:00:00,
2013-01-22 00:04:00,28.0,-0.9,30.00,South,182,0.0,2.7,28,0.00,,---,0.00,VWS V14.01,2013-01-22 07:04:00,
2013-01-22 00:05:00,28.0,-0.9,30.00,South,182,0.0,2.7,28,0.00,,---,0.00,VWS V14.01,2013-01-22 07:05:00,
2013-01-22 00:09:00,29.1,0.1,30.00,South,190,2.2,2.7,28,0.00,,---,0.00,VWS V14.01,2013-01-22 07:09:00,
2013-01-22 00:10:00,29.7,0.6,30.00,South,190,2.2,2.7,28,0.00,,---,0.00,VWS V14.01,2013-01-22 07:10:00,
2013-01-22 00:14:00,31.1,1.8,30.00,SSW,192,0.0,3.1,28,0.00,,---,0.00,VWS V14.01,2013-01-22 07:14:00,
2013-01-22 00:15:00,31.1,1.8,30.00,SSW,192,0.0,3.1,28,0.00,,---,0.00,VWS V14.01,2013-01-22 07:15:00,
2013-01-22 00:16:00,31.1,1.8,30.00,South,185,2.7,2.7,28,0.00,,---,0.00,VWS V14.01,2013-01-22 07:16:00,
2013-01-22 00:19:00,30.6,1.4,30.00,South,183,2.7,2.7,28,0.00,,---,0.00,VWS V14.01,2013-01-22 07:19:00,
2013-01-22 00:20:00,30.2,1.0,30.00,South,181,2.7,2.7,28,0.00,,---,0.00,VWS V14.01,2013-01-22 07:20:00,
2013-01-22 00:21:00,30.2,1.0,30.00,South,181,0.0,2.7,28,0.00,,---,0.00,VWS V14.01,2013-01-22 07:21:00,
2013-01-22 00:24:00,29.5,0.4,30.00,South,182,0.0,2.7,28,0.00,,---,0.00,VWS V14.01,2013-01-22 07:24:00,
2013-01-22 00:25:00,29.3,0.2,30.00,South,178,0.0,2.7,28,0.00,,---,0.00,VWS V14.01,2013-01-22 07:25:00,
2013-01-22 00:26:00,29.1,0.1,30.00,South,178,0.0,2.7,28,0.00,,---,0.00,VWS V14.01,2013-01-22 07:26:00,
2013-01-22 00:27:00,29.1,0.1,30.00,South,178,2.2,2.7,28,0.00,,---,0.00,VWS V14.01,2013-01-22 07:27:00,
2013-01-22 00:30:00,28.8,-0.2,30.00,South,178,0.0,2.7,28,0.00,,---,0.00,VWS V14.01,2013-01-22 07:30:00,
2013-01-22 00:31:00,28.6,-0.4,30.00,South,178,0.0,0.0,28,0.00,,---,0.00,VWS V14.01,2013-01-22 07:31:00,
2013-01-22 00:32:00,28.6,-0.4,30.00,South,178,2.2,2.2,28,0.00,,---,0.00,VWS V14.01,2013-01-22 07:32:00,
2013-01-22 00:35:00,28.6,-0.4,30.00,South,184,2.2,3.6,28,0.00,,---,0.00,VWS V14.01,2013-01-22 07:35:00,
2013-01-22 00:36:00,28.6,-0.4,30.00,South,186,3.1,3.6,28,0.00,,---,0.00,VWS V14.01,2013-01-22 07:36:00,
2013-01-22 00:37:00,28.8,-2.6,30.00,South,191,2.7,4.0,25,0.00,,---,0.00,VWS V14.01,2013-01-22 07:37:00,
2013-01-22 00:40:00,29.5,-2.0,30.00,South,191,3.1,4.0,25,0.00,,---,0.00,VWS V14.01,2013-01-22 07:40:00,
2013-01-22 00:41:00,29.8,-1.7,30.00,South,191,2.7,4.0,25,0.00,,---,0.00,VWS V14.01,2013-01-22 07:41:00,
2013-01-22 00:42:00,30.0,-1.5,30.00,SSW,192,3.1,4.0,25,0.00,,---,0.00,VWS V14.01,2013-01-22 07:42:00,
2013-01-22 00:45:00,30.4,-1.2,30.00,SSW,192,2.7,2.7,25,0.00,,---,0.00,VWS V14.01,2013-01-22 07:45:00,
2013-01-22 00:46:00,30.4,-1.2,30.00,SSW,192,0.0,2.7,25,0.00,,---,0.00,VWS V14.01,2013-01-22 07:46:00,
2013-01-22 00:47:00,30.4,-1.2,30.00,SSW,192,0.0,2.7,25,0.00,,---,0.00,VWS V14.01,2013-01-22 07:47:00,
2013-01-22 00:50:00,30.2,-1.4,30.00,SSW,200,2.7,2.7,25,0.00,,---,0.00,VWS V14.01,2013-01-22 07:50:00,
2013-01-22 00:51:00,30.2,-1.4,30.00,SSW,208,2.7,2.7,25,0.00,,---,0.00,VWS V14.01,2013-01-22 07:51:00,
2013-01-22 00:52:00,30.2,-1.4,30.00,SSW,211,2.2,3.1,25,0.00,,---,0.00,VWS V14.01,2013-01-22 07:52:00,
2013-01-22 00:55:00,32.7,-1.0,30.00,West,266,4.0,5.4,23,0.00,,---,0.00,VWS V14.01,2013-01-22 07:55:00,
2013-01-22 00:57:00,33.3,-0.5,30.00,West,272,3.6,5.4,23,0.00,,---,0.00,VWS V14.01,2013-01-22 07:57:00,
2013-01-22 01:01:00,35.4,0.4,30.00,West,271,4.0,4.0,22,0.00,,---,0.00,VWS V14.01,2013-01-22 08:01:00,
2013-01-22 01:02:00,35.6,0.5,30.00,West,267,4.0,4.0,22,0.00,,---,0.00,VWS V14.01,2013-01-22 08:02:00,
2013-01-22 01:03:00,35.8,-2.4,30.00,West,277,3.6,4.9,19,0.00,,---,0.00,VWS V14.01,2013-01-22 08:03:00,
2013-01-22 01:06:00,36.3,-2.0,30.00,West,270,4.9,5.4,19,0.00,,---,0.00,VWS V14.01,2013-01-22 08:06:00,
2013-01-22 01:07:00,36.5,-1.8,30.00,West,259,3.6,5.4,19,0.00,,---,0.00,VWS V14.01,2013-01-22 08:07:00,
2013-01-22 01:08:00,36.7,-1.7,30.00,WSW,255,3.6,5.4,19,0.00,,---,0.00,VWS V14.01,2013-01-22 08:08:00,
2013-01-22 01:11:00,37.0,-1.4,30.00,WSW,252,3.1,5.4,19,0.00,,---,0.00,VWS V14.01,2013-01-22 08:11:00,
2013-01-22 01:12:00,37.0,-1.4,30.00,WSW,245,3.6,5.4,19,0.00,,---,0.00,VWS V14.01,2013-01-22 08:12:00,
2013-01-22 01:13:00,37.2,-1.2,30.00,West,267,5.4,5.4,19,0.00,,---,0.00,VWS V14.01,2013-01-22 08:13:00,
2013-01-22 01:16:00,37.4,-1.1,30.00,West,259,3.6,4.0,19,0.00,,---,0.00,VWS V14.01,2013-01-22 08:16:00,
2013-01-22 01:17:00,37.6,-0.9,30.00,West,279,5.8,5.8,19,0.00,,---,0.00,VWS V14.01,2013-01-22 08:17:00,
2013-01-22 01:18:00,37.6,-0.9,30.00,West,279,5.4,5.8,19,0.00,,---,0.00,VWS V14.01,2013-01-22 08:18:00,
2013-01-22 01:21:00,37.6,-0.9,30.00,West,261,3.6,5.8,19,0.00,,---,0.00,VWS V14.01,2013-01-22 08:21:00,
2013-01-22 01:22:00,37.6,-0.9,30.00,SW,233,4.0,5.8,19,0.00,,---,0.00,VWS V14.01,2013-01-22 08:22:00,
2013-01-22 01:23:00,37.6,-0.9,30.00,WSW,239,4.9,5.8,19,0.00,,---,0.00,VWS V14.01,2013-01-22 08:23:00,
2013-01-22 01:26:00,37.4,-1.1,30.00,West,272,4.0,5.8,19,0.00,,---,0.00,VWS V14.01,2013-01-22 08:26:00,
2013-01-22 01:27:00,37.4,-1.1,30.00,West,267,3.1,5.8,19,0.00,,---,0.00,VWS V14.01,2013-01-22 08:27:00,
2013-01-22 01:28:00,37.2,-1.2,30.00,WSW,253,4.0,5.8,19,0.00,,---,0.00,VWS V14.01,2013-01-22 08:28:00,
2013-01-22 01:31:00,37.0,-1.4,30.00,West,262,3.6,4.0,19,0.00,,---,0.00,VWS V14.01,2013-01-22 08:31:00,
2013-01-22 01:32:00,37.0,-1.4,30.00,WNW,287,3.1,4.0,19,0.00,,---,0.00,VWS V14.01,2013-01-22 08:32:00,
2013-01-22 01:33:00,37.0,-1.4,30.00,West,262,5.4,5.4,19,0.00,,---,0.00,VWS V14.01,2013-01-22 08:33:00,
2013-01-22 01:34:00,37.0,-1.4,30.00,WSW,250,4.0,5.4,19,0.00,,---,0.00,VWS V14.01,2013-01-22 08:34:00,
2013-01-22 01:36:00,37.0,-1.4,30.00,SW,229,3.1,5.4,19,0.00,,---,0.00,VWS V14.01,2013-01-22 08:36:00,
2013-01-22 01:38:00,37.0,-1.4,30.00,West,270,2.7,5.4,19,0.00,,---,0.00,VWS V14.01,2013-01-22 08:38:00,
2013-01-22 01:39:00,37.0,-1.4,30.00,West,272,2.2,5.4,19,0.00,,---,0.00,VWS V14.01,2013-01-22 08:39:00,
2013-01-22 01:42:00,37.0,-1.4,30.00,West,270,0.0,5.4,19,0.00,,---,0.00,VWS V14.01,2013-01-22 08:42:00,
2013-01-22 01:43:00,36.9,-1.5,30.00,WNW,301,3.1,5.4,19,0.00,,---,0.00,VWS V14.01,2013-01-22 08:43:00,
2013-01-22 01:44:00,36.5,-1.8,30.00,North,8,4.0,5.4,19,0.00,,---,0.00,VWS V14.01,2013-01-22 08:44:00,
2013-01-22 01:45:00,36.3,-2.0,30.00,North,7,3.1,5.4,19,0.00,,---,0.00,VWS V14.01,2013-01-22 08:45:00,
2013-01-22 01:47:00,36.1,-2.1,30.00,WNW,300,2.7,3.6,19,0.00,,---,0.00,VWS V14.01,2013-01-22 08:47:00,
2013-01-22 01:48:00,36.0,-2.3,30.00,WNW,292,2.7,3.6,19,0.00,,---,0.00,VWS V14.01,2013-01-22 08:48:00,
2013-01-22 01:49:00,35.8,-2.4,30.00,WNW,291,0.0,3.6,19,0.00,,---,0.00,VWS V14.01,2013-01-22 08:49:00,
2013-01-22 01:50:00,35.8,-2.4,30.00,WNW,291,0.0,3.6,19,0.00,,---,0.00,VWS V14.01,2013-01-22 08:50:00,
2013-01-22 01:52:00,35.6,-2.6,30.00,SSE,157,2.7,3.6,19,0.00,,---,0.00,VWS V14.01,2013-01-22 08:52:00,
2013-01-22 01:53:00,35.1,-2.0,30.00,SSE,152,0.0,3.6,20,0.00,,---,0.00,VWS V14.01,2013-01-22 08:53:00,
2013-01-22 01:55:00,34.0,-2.9,30.00,SSE,152,0.0,3.6,20,0.00,,---,0.00,VWS V14.01,2013-01-22 08:55:00,
2013-01-22 01:57:00,33.1,-3.6,30.00,SSE,152,2.2,3.6,20,0.00,,---,0.00,VWS V14.01,2013-01-22 08:57:00,
2013-01-22 01:58:00,32.4,-4.2,30.00,SE,124,2.7,3.6,20,0.00,,---,0.00,VWS V14.01,2013-01-22 08:58:00,
2013-01-22 02:00:00,31.5,-5.0,30.00,SE,141,3.6,3.6,20,0.00,,---,0.00,VWS V14.01,2013-01-22 09:00:00,
2013-01-22 02:02:00,30.7,-5.6,30.00,SE,138,0.0,3.6,20,0.00,,---,0.00,VWS V14.01,2013-01-22 09:02:00,
2013-01-22 02:04:00,30.0,-6.2,30.00,South,189,4.0,5.4,20,0.00,,---,0.00,VWS V14.01,2013-01-22 09:04:00,
2013-01-22 02:05:00,29.8,-6.3,30.00,South,184,2.7,5.8,20,0.00,,---,0.00,VWS V14.01,2013-01-22 09:05:00,
2013-01-22 02:07:00,29.7,-6.5,30.00,SSW,198,0.0,5.8,20,0.00,,---,0.00,VWS V14.01,2013-01-22 09:07:00,
2013-01-22 02:09:00,29.5,-6.6,30.00,SSW,202,2.7,5.8,20,0.00,,---,0.00,VWS V14.01,2013-01-22 09:09:00,
2013-01-22 02:10:00,29.3,-3.9,30.00,WSW,249,2.2,5.8,23,0.00,,---,0.00,VWS V14.01,2013-01-22 09:10:00,
2013-01-22 02:11:00,29.3,-3.9,30.00,WSW,249,2.2,5.8,23,0.00,,---,0.00,VWS V14.01,2013-01-22 09:11:00,
2013-01-22 02:12:00,28.9,-4.2,30.00,WSW,246,0.0,5.8,23,0.00,,---,0.00,VWS V14.01,2013-01-22 09:12:00,
2013-01-22 02:14:00,28.8,-4.3,30.00,SSW,204,3.1,5.8,23,0.00,,---,0.00,VWS V14.01,2013-01-22 09:14:00,
2013-01-22 02:16:00,28.8,-4.3,30.00,SSW,203,0.0,2.7,23,0.00,,---,0.00,VWS V14.01,2013-01-22 09:16:00,
2013-01-22 02:17:00,28.8,-4.3,30.00,SW,222,2.2,3.1,23,0.00,,---,0.00,VWS V14.01,2013-01-22 09:17:00,
2013-01-22 02:19:00,28.8,-4.3,30.00,SW,222,2.7,3.1,23,0.00,,---,0.00,VWS V14.01,2013-01-22 09:19:00,
2013-01-22 02:21:00,28.8,-7.2,30.00,SSW,204,2.7,3.1,20,0.00,,---,0.00,VWS V14.01,2013-01-22 09:21:00,
2013-01-22 02:22:00,28.9,-4.2,30.00,SSW,196,2.2,3.1,23,0.00,,---,0.00,VWS V14.01,2013-01-22 09:22:00,
2013-01-22 02:24:00,29.3,-3.9,30.00,SSE,167,2.7,3.6,23,0.00,,---,0.00,VWS V14.01,2013-01-22 09:24:00,
2013-01-22 02:26:00,29.3,-3.9,30.00,SSW,204,4.0,4.0,23,0.00,,---,0.00,VWS V14.01,2013-01-22 09:26:00,
2013-01-22 02:27:00,29.3,-3.9,30.00,SSW,200,0.0,4.0,23,0.00,,---,0.00,VWS V14.01,2013-01-22 09:27:00,
2013-01-22 02:29:00,29.1,-4.1,30.00,SSW,200,2.2,4.0,23,0.00,,---,0.00,VWS V14.01,2013-01-22 09:29:00,
2013-01-22 02:31:00,28.9,-4.2,30.00,SSW,212,2.7,3.1,23,0.00,,---,0.00,VWS V14.01,2013-01-22 09:31:00,
2013-01-22 02:33:00,28.9,-7.1,30.00,SSW,204,2.2,3.1,20,0.00,,---,0.00,VWS V14.01,2013-01-22 09:33:00,
2013-01-22 02:35:00,29.1,-6.9,30.00,SSW,204,0.0,3.1,20,0.00,,---,0.00,VWS V14.01,2013-01-22 09:35:00,
2013-01-22 02:36:00,29.3,-6.8,30.00,SSW,197,0.0,3.1,20,0.00,,---,0.00,VWS V14.01,2013-01-22 09:36:00,
2013-01-22 02:37:00,29.3,-3.9,30.00,SSW,193,3.6,3.6,23,0.00,,---,0.00,VWS V14.01,2013-01-22 09:37:00,
2013-01-22 02:38:00,29.3,-3.9,30.00,South,179,2.7,3.6,23,0.00,,---,0.00,VWS V14.01,2013-01-22 09:38:00,
2013-01-22 02:40:00,28.9,-4.2,30.00,South,179,0.0,3.6,23,0.00,,---,0.00,VWS V14.01,2013-01-22 09:40:00,
2013-01-22 02:41:00,28.6,-4.5,30.00,South,179,3.6,3.6,23,0.00,,---,0.00,VWS V14.01,2013-01-22 09:41:00,
2013-01-22 02:42:00,28.4,-4.7,30.00,South,187,3.1,3.6,23,0.00,,---,0.00,VWS V14.01,2013-01-22 09:42:00,
2013-01-22 02:43:00,27.9,-5.1,30.00,South,188,2.2,3.6,23,0.00,,---,0.00,VWS V14.01,2013-01-22 09:43:00,
2013-01-22 02:45:00,27.9,-5.1,30.00,South,188,2.2,2.2,23,0.00,,---,0.00,VWS V14.01,2013-01-22 09:45:00,
2013-01-22 02:46:00,27.9,-5.1,30.00,South,188,2.7,2.7,23,0.00,,---,0.00,VWS V14.01,2013-01-22 09:46:00,
2013-01-22 02:47:00,27.9,-5.1,30.00,South,188,3.1,3.1,23,0.00,,---,0.00,VWS V14.01,2013-01-22 09:47:00,
2013-01-22 02:48:00,27.7,-5.3,30.00,South,178,2.7,3.1,23,0.00,,---,0.00,VWS V14.01,2013-01-22 09:48:00,
2013-01-22 02:50:00,27.7,-5.3,30.00,SSW,192,3.1,3.6,23,0.00,,---,0.00,VWS V14.01,2013-01-22 09:50:00,
2013-01-22 02:51:00,27.5,-5.4,30.00,SSW,192,3.1,4.0,23,0.00,,---,0.00,VWS V14.01,2013-01-22 09:51:00,
2013-01-22 02:52:00,27.5,-5.4,30.00,SSW,192,2.2,4.0,23,0.00,,---,0.00,VWS V14.01,2013-01-22 09:52:00,
2013-01-22 02:53:00,27.3,-5.6,30.00,South,186,2.7,4.0,23,0.00,,---,0.00,VWS V14.01,2013-01-22 09:53:00,
2013-01-22 02:55:00,27.0,-5.9,30.00,South,173,2.2,4.0,23,0.00,,---,0.00,VWS V14.01,2013-01-22 09:55:00,
2013-01-22 02:56:00,27.0,-5.9,30.00,South,173,0.0,4.0,23,0.00,,---,0.00,VWS V14.01,2013-01-22 09:56:00,
2013-01-22 02:57:00,27.0,-5.9,30.00,South,173,0.0,4.0,23,0.00,,---,0.00,VWS V14.01,2013-01-22 09:57:00,
2013-01-22 02:58:00,26.8,-6.0,30.00,South,173,2.2,4.0,23,0.00,,---,0.00,VWS V14.01,2013-01-22 09:58:00,
2013-01-22 03:01:00,26.6,-3.7,30.00,SSE,158,2.7,3.1,26,0.00,,---,0.00,VWS V14.01,2013-01-22 10:01:00,
2013-01-22 03:02:00,26.6,-3.7,30.00,SSW,192,3.1,3.1,26,0.00,,---,0.00,VWS V14.01,2013-01-22 10:02:00,
2013-01-22 03:03:00,26.4,-3.8,30.00,South,180,3.1,4.0,26,0.00,,---,0.00,VWS V14.01,2013-01-22 10:03:00,
2013-01-22 03:06:00,26.4,-3.8,30.00,South,188,3.1,4.0,26,0.00,,---,0.00,VWS V14.01,2013-01-22 10:06:00,
2013-01-22 03:07:00,26.4,-3.8,30.00,South,173,2.7,4.0,26,0.00,,---,0.00,VWS V14.01,2013-01-22 10:07:00,
2013-01-22 03:08:00,26.4,-3.8,30.00,South,182,2.7,4.0,26,0.00,,---,0.00,VWS V14.01,2013-01-22 10:08:00,
2013-01-22 03:11:00,26.6,-3.7,30.00,South,177,2.7,4.5,26,0.00,,---,0.00,VWS V14.01,2013-01-22 10:11:00,
2013-01-22 03:12:00,26.6,-3.7,30.00,South,175,3.1,4.5,26,0.00,,---,0.00,VWS V14.01,2013-01-22 10:12:00,
2013-01-22 03:14:00,26.8,-3.5,30.00,South,183,5.4,6.3,26,0.00,,---,0.00,VWS V14.01,2013-01-22 10:14:00,
2013-01-22 03:16:00,27.0,-3.3,30.00,SSW,196,5.4,5.4,26,0.00,,---,0.00,VWS V14.01,2013-01-22 10:16:00,
2013-01-22 03:17:00,27.0,-5.9,30.00,SSW,196,3.1,5.4,23,0.00,,---,0.00,VWS V14.01,2013-01-22 10:17:00,
2013-01-22 03:19:00,27.1,-5.7,30.00,SSW,202,4.0,6.3,23,0.00,,---,0.00,VWS V14.01,2013-01-22 10:19:00,
2013-01-22 03:21:00,27.3,-5.6,30.00,SSW,207,2.2,6.3,23,0.00,,---,0.00,VWS V14.01,2013-01-22 10:21:00,
2013-01-22 03:22:00,27.5,-5.4,30.00,SSW,206,4.0,6.3,23,0.00,,---,0.00,VWS V14.01,2013-01-22 10:22:00,
2013-01-22 03:24:00,27.9,-5.1,30.00,SSW,193,4.5,6.3,23,0.00,,---,0.00,VWS V14.01,2013-01-22 10:24:00,
2013-01-22 03:27:00,27.9,-5.1,30.00,SSW,192,2.7,6.3,23,0.00,,---,0.00,VWS V14.01,2013-01-22 10:27:00,
2013-01-22 03:28:00,28.0,-5.0,30.00,SSW,193,3.1,6.3,23,0.00,,---,0.00,VWS V14.01,2013-01-22 10:28:00,
2013-01-22 03:29:00,28.0,-5.0,30.00,SSW,192,0.0,6.3,23,0.00,,---,0.00,VWS V14.01,2013-01-22 10:29:00,
2013-01-22 03:32:00,27.9,-5.1,30.00,SSW,195,5.4,6.3,23,0.00,,---,0.00,VWS V14.01,2013-01-22 10:32:00,
2013-01-22 03:33:00,27.9,-5.1,30.00,South,191,3.1,6.3,23,0.00,,---,0.00,VWS V14.01,2013-01-22 10:33:00,
2013-01-22 03:34:00,27.9,-5.1,30.00,SSW,199,3.1,6.3,23,0.00,,---,0.00,VWS V14.01,2013-01-22 10:34:00,
2013-01-22 03:37:00,27.9,-5.1,30.00,SSW,199,0.0,6.3,23,0.00,,---,0.00,VWS V14.01,2013-01-22 10:37:00,
2013-01-22 03:38:00,27.9,-5.1,30.00,South,182,2.2,6.3,23,0.00,,---,0.00,VWS V14.01,2013-01-22 10:38:00,
2013-01-22 03:39:00,27.7,-5.3,30.00,South,178,2.2,6.3,23,0.00,,---,0.00,VWS V14.01,2013-01-22 10:39:00,
2013-01-22 03:42:00,27.7,-5.3,30.00,SSW,192,4.9,6.3,23,0.00,,---,0.00,VWS V14.01,2013-01-22 10:42:00,
2013-01-22 03:43:00,27.9,-5.1,30.00,SSW,198,4.0,6.3,23,0.00,,---,0.00,VWS V14.01,2013-01-22 10:43:00,
2013-01-22 03:44:00,27.9,-5.1,30.00,SSW,196,2.7,6.3,23,0.00,,---,0.00,VWS V14.01,2013-01-22 10:44:00,
2013-01-22 03:47:00,28.0,-5.0,30.00,South,188,4.9,5.8,23,0.00,,---,0.00,VWS V14.01,2013-01-22 10:47:00,
2013-01-22 03:48:00,28.0,-5.0,30.00,SSW,197,3.6,5.8,23,0.00,,---,0.00,VWS V14.01,2013-01-22 10:48:00,
2013-01-22 03:49:00,28.0,-5.0,30.00,SSW,197,5.4,5.8,23,0.00,,---,0.00,VWS V14.01,2013-01-22 10:49:00,
2013-01-22 03:52:00,28.2,-4.8,30.00,SSW,196,4.0,6.3,23,0.00,,---,0.00,VWS V14.01,2013-01-22 10:52:00,
2013-01-22 03:53:00,28.2,-4.8,30.00,SSW,200,4.0,6.3,23,0.00,,---,0.00,VWS V14.01,2013-01-22 10:53:00,
2013-01-22 03:54:00,28.2,-4.8,30.00,SSW,194,3.6,6.3,23,0.00,,---,0.00,VWS V14.01,2013-01-22 10:54:00,
2013-01-22 03:55:00,28.0,-5.0,30.00,SSW,194,2.2,6.3,23,0.00,,---,0.00,VWS V14.01,2013-01-22 10:55:00,
2013-01-22 03:58:00,27.9,-5.1,30.00,South,188,4.0,6.3,23,0.00,,---,0.00,VWS V14.01,2013-01-22 10:58:00,
2013-01-22 03:59:00,27.7,-5.3,30.00,South,182,2.7,6.3,23,0.00,,---,0.00,VWS V14.01,2013-01-22 10:59:00,
2013-01-22 04:00:00,27.7,-5.3,30.00,South,190,5.8,6.3,23,0.00,,---,0.00,VWS V14.01,2013-01-22 11:00:00,
2013-01-22 04:03:00,27.7,-5.3,30.00,South,173,3.1,5.8,23,0.00,,---,0.00,VWS V14.01,2013-01-22 11:03:00,
2013-01-22 04:04:00,27.7,-5.3,30.00,South,185,4.0,5.8,23,0.00,,---,0.00,VWS V14.01,2013-01-22 11:04:00,
2013-01-22 04:05:00,27.7,-5.3,30.00,South,182,3.1,5.8,23,0.00,,---,0.00,VWS V14.01,2013-01-22 11:05:00,
2013-01-22 04:08:00,27.5,-5.4,30.00,SSE,168,3.6,5.8,23,0.00,,---,0.00,VWS V14.01,2013-01-22 11:08:00,
2013-01-22 04:09:00,27.3,-5.6,30.00,South,187,3.6,5.8,23,0.00,,---,0.00,VWS V14.01,2013-01-22 11:09:00,
2013-01-22 04:10:00,27.3,-5.6,30.00,SSW,197,4.9,5.8,23,0.00,,---,0.00,VWS V14.01,2013-01-22 11:10:00,
2013-01-22 04:13:00,27.3,-5.6,30.00,South,186,4.5,6.3,23,0.00,,---,0.00,VWS V14.01,2013-01-22 11:13:00,
2013-01-22 04:14:00,27.3,-5.6,30.00,SSW,193,3.1,6.3,23,0.00,,---,0.00,VWS V14.01,2013-01-22 11:14:00,
2013-01-22 04:15:00,27.3,-5.6,30.00,SSW,194,5.4,5.4,23,0.00,,---,0.00,VWS V14.01,2013-01-22 11:15:00,
2013-01-22 04:18:00,27.3,-5.6,30.00,South,190,4.0,6.3,23,0.00,,---,0.00,VWS V14.01,2013-01-22 11:18:00,
2013-01-22 04:19:00,27.3,-5.6,30.00,SSW,194,3.6,6.3,23,0.00,,---,0.00,VWS V14.01,2013-01-22 11:19:00,
2013-01-22 04:20:00,27.3,-5.6,30.00,SSW,197,3.6,6.3,23,0.00,,---,0.00,VWS V14.01,2013-01-22 11:20:00,
2013-01-22 04:23:00,27.7,-5.3,30.00,SSW,195,3.1,6.3,23,0.00,,---,0.00,VWS V14.01,2013-01-22 11:23:00,
2013-01-22 04:24:00,27.9,-5.1,30.00,SSW,192,4.0,6.3,23,0.00,,---,0.00,VWS V14.01,2013-01-22 11:24:00,
2013-01-22 04:25:00,27.9,-5.1,30.00,SSW,203,4.9,6.3,23,0.00,,---,0.00,VWS V14.01,2013-01-22 11:25:00,
2013-01-22 04:28:00,28.0,-5.0,30.00,SSW,198,3.1,6.3,23,0.00,,---,0.00,VWS V14.01,2013-01-22 11:28:00,
2013-01-22 04:29:00,28.2,-4.8,30.00,South,191,3.1,6.3,23,0.00,,---,0.00,VWS V14.01,2013-01-22 11:29:00,
2013-01-22 04:30:00,28.2,-4.8,30.00,South,184,3.6,3.6,23,0.00,,---,0.00,VWS V14.01,2013-01-22 11:30:00,
2013-01-22 04:31:00,28.2,-4.8,30.00,SSW,205,5.4,5.4,23,0.00,,---,0.00,VWS V14.01,2013-01-22 11:31:00,
2013-01-22 04:33:00,28.4,-4.7,30.00,South,188,2.7,5.4,23,0.00,,---,0.00,VWS V14.01,2013-01-22 11:33:00,
2013-01-22 04:35:00,28.4,-4.7,30.00,South,190,3.6,5.4,23,0.00,,---,0.00,VWS V14.01,2013-01-22 11:35:00,
2013-01-22 04:36:00,28.6,-7.4,30.00,South,191,4.9,5.4,20,0.00,,---,0.00,VWS V14.01,2013-01-22 11:36:00,
2013-01-22 04:38:00,28.8,-7.2,30.00,South,191,3.6,5.4,20,0.00,,---,0.00,VWS V14.01,2013-01-22 11:38:00,
2013-01-22 04:40:00,28.9,-7.1,30.00,South,189,2.2,5.4,20,0.00,,---,0.00,VWS V14.01,2013-01-22 11:40:00,
2013-01-22 04:41:00,28.9,-7.1,30.00,South,188,2.7,5.4,20,0.00,,---,0.00,VWS V14.01,2013-01-22 11:41:00,
2013-01-22 04:44:00,29.1,-6.9,30.00,South,185,2.7,5.4,20,0.00,,---,0.00,VWS V14.01,2013-01-22 11:44:00,
2013-01-22 04:45:00,28.9,-7.1,30.00,South,185,3.1,5.4,20,0.00,,---,0.00,VWS V14.01,2013-01-22 11:45:00,
2013-01-22 04:46:00,28.9,-7.1,30.00,South,187,3.1,4.0,20,0.00,,---,0.00,VWS V14.01,2013-01-22 11:46:00,
2013-01-22 04:47:00,28.9,-7.1,30.00,South,188,3.1,4.0,20,0.00,,---,0.00,VWS V14.01,2013-01-22 11:47:00,
2013-01-22 04:49:00,28.8,-4.3,30.00,South,181,2.7,4.0,23,0.00,,---,0.00,VWS V14.01,2013-01-22 11:49:00,
2013-01-22 04:50:00,28.6,-4.5,30.00,South,181,3.1,4.0,23,0.00,,---,0.00,VWS V14.01,2013-01-22 11:50:00,
2013-01-22 04:51:00,28.6,-4.5,30.00,South,191,4.5,4.5,23,0.00,,---,0.00,VWS V14.01,2013-01-22 11:51:00,
2013-01-22 04:52:00,28.4,-4.7,30.00,South,190,3.1,4.5,23,0.00,,---,0.00,VWS V14.01,2013-01-22 11:52:00,
2013-01-22 04:54:00,28.4,-6.5,30.00,SSW,192,3.1,4.5,21,0.00,,---,0.00,VWS V14.01,2013-01-22 11:54:00,
2013-01-22 04:55:00,28.4,-6.5,30.00,SSW,193,3.6,4.5,21,0.00,,---,0.00,VWS V14.01,2013-01-22 11:55:00,
2013-01-22 04:56:00,28.4,-6.5,30.00,SSW,195,4.9,4.9,21,0.00,,---,0.00,VWS V14.01,2013-01-22 11:56:00,
2013-01-22 04:57:00,28.4,-6.5,30.00,SSW,194,3.1,4.9,21,0.00,,---,0.00,VWS V14.01,2013-01-22 11:57:00,
2013-01-22 04:59:00,28.6,-4.5,30.00,South,191,2.7,4.9,23,0.00,,---,0.00,VWS V14.01,2013-01-22 11:59:00,
2013-01-22 05:00:00,28.4,-6.5,30.00,SSW,196,3.6,4.0,21,0.00,,---,0.00,VWS V14.01,2013-01-22 12:00:00,
2013-01-22 05:02:00,28.4,-4.7,30.00,SSW,192,2.7,4.0,23,0.00,,---,0.00,VWS V14.01,2013-01-22 12:02:00,
2013-01-22 05:04:00,28.0,-5.0,30.00,South,187,2.7,4.0,23,0.00,,---,0.00,VWS V14.01,2013-01-22 12:04:00,
2013-01-22 05:05:00,27.9,-5.1,30.00,South,189,3.1,4.0,23,0.00,,---,0.00,VWS V14.01,2013-01-22 12:05:00,
2013-01-22 05:07:00,27.7,-5.3,30.00,South,190,2.7,5.4,23,0.00,,---,0.00,VWS V14.01,2013-01-22 12:07:00,
2013-01-22 05:08:00,27.7,-5.3,30.00,South,190,2.7,5.4,23,0.00,,---,0.00,VWS V14.01,2013-01-22 12:08:00,
2013-01-22 05:09:00,27.5,-5.4,30.00,SSW,193,3.6,5.4,23,0.00,,---,0.00,VWS V14.01,2013-01-22 12:09:00,
2013-01-22 05:10:00,27.3,-5.6,30.00,SSW,195,4.9,5.4,23,0.00,,---,0.00,VWS V14.01,2013-01-22 12:10:00,
2013-01-22 05:12:00,27.3,-5.6,30.00,SSW,196,3.6,5.4,23,0.00,,---,0.00,VWS V14.01,2013-01-22 12:12:00,
2013-01-22 05:13:00,27.3,-5.6,30.00,SSW,196,2.7,5.4,23,0.00,,---,0.00,VWS V14.01,2013-01-22 12:13:00,
2013-01-22 05:14:00,27.1,-7.6,30.00,SSW,193,5.8,5.8,21,0.00,,---,0.00,VWS V14.01,2013-01-22 12:14:00,
2013-01-22 05:15:00,27.1,-7.6,30.00,SSW,193,3.1,4.9,21,0.00,,---,0.00,VWS V14.01,2013-01-22 12:15:00,
2013-01-22 05:17:00,27.1,-5.7,30.00,SSW,195,3.1,4.9,23,0.00,,---,0.00,VWS V14.01,2013-01-22 12:17:00,
2013-01-22 05:18:00,27.1,-5.7,30.00,SSW,199,4.0,4.9,23,0.00,,---,0.00,VWS V14.01,2013-01-22 12:18:00,
2013-01-22 05:20:00,27.1,-5.7,30.00,SSW,193,3.6,4.9,23,0.00,,---,0.00,VWS V14.01,2013-01-22 12:20:00,
2013-01-22 05:21:00,27.1,-7.6,30.00,SSW,196,2.7,5.4,21,0.00,,---,0.00,VWS V14.01,2013-01-22 12:21:00,
2013-01-22 05:22:00,27.1,-7.6,30.00,SSW,196,3.1,5.4,21,0.00,,---,0.00,VWS V14.01,2013-01-22 12:22:00,
2013-01-22 05:23:00,27.1,-7.6,30.00,South,188,2.2,5.4,21,0.00,,---,0.00,VWS V14.01,2013-01-22 12:23:00,
2013-01-22 05:25:00,27.1,-7.6,30.00,South,188,0.0,5.4,21,0.00,,---,0.00,VWS V14.01,2013-01-22 12:25:00,
2013-01-22 05:26:00,27.1,-7.6,30.00,South,187,3.6,5.4,21,0.00,,---,0.00,VWS V14.01,2013-01-22 12:26:00,
2013-01-22 05:27:00,27.1,-7.6,30.00,South,187,2.2,5.4,21,0.00,,---,0.00,VWS V14.01,2013-01-22 12:27:00,
2013-01-22 05:28:00,27.1,-7.6,30.00,South,187,2.2,5.4,21,0.00,,---,0.00,VWS V14.01,2013-01-22 12:28:00,
2013-01-22 05:30:00,27.0,-5.9,30.00,South,186,2.2,2.7,23,0.00,,---,0.00,VWS V14.01,2013-01-22 12:30:00,
2013-01-22 05:32:00,26.6,-5.3,30.00,South,182,2.7,2.7,24,0.00,,---,0.00,VWS V14.01,2013-01-22 12:32:00,
2013-01-22 05:33:00,26.4,-5.5,30.00,South,183,3.1,3.1,24,0.00,,---,0.00,VWS V14.01,2013-01-22 12:33:00,
2013-01-22 05:35:00,26.1,-5.8,30.00,South,187,3.6,4.0,24,0.00,,---,0.00,VWS V14.01,2013-01-22 12:35:00,
2013-01-22 05:37:00,26.1,-5.8,30.00,South,176,2.7,4.0,24,0.00,,---,0.00,VWS V14.01,2013-01-22 12:37:00,
2013-01-22 05:38:00,26.1,-5.8,30.00,South,173,2.7,4.0,24,0.00,,---,0.00,VWS V14.01,2013-01-22 12:38:00,
2013-01-22 05:40:00,25.9,-5.9,30.00,South,188,2.7,4.0,24,0.00,,---,0.00,VWS V14.01,2013-01-22 12:40:00,
2013-01-22 05:42:00,25.7,-6.1,30.00,South,188,2.2,4.9,24,0.00,,---,0.00,VWS V14.01,2013-01-22 12:42:00,
2013-01-22 05:43:00,25.7,-6.1,30.00,South,188,0.0,4.9,24,0.00,,---,0.00,VWS V14.01,2013-01-22 12:43:00,
2013-01-22 05:46:00,25.3,-6.4,30.00,SSW,193,4.0,4.0,24,0.00,,---,0.00,VWS V14.01,2013-01-22 12:46:00,
2013-01-22 05:47:00,25.3,-6.4,30.00,South,174,3.6,4.0,24,0.00,,---,0.00,VWS V14.01,2013-01-22 12:47:00,
2013-01-22 05:48:00,25.3,-6.4,30.00,South,184,3.1,4.0,24,0.00,,---,0.00,VWS V14.01,2013-01-22 12:48:00,
2013-01-22 05:51:00,25.5,-6.2,30.00,South,186,2.2,4.0,24,0.00,,---,0.00,VWS V14.01,2013-01-22 12:51:00,
2013-01-22 05:52:00,25.5,-6.2,30.00,South,185,2.2,4.0,24,0.00,,---,0.00,VWS V14.01,2013-01-22 12:52:00,
2013-01-22 05:53:00,25.5,-6.2,30.00,South,182,2.7,4.0,24,0.00,,---,0.00,VWS V14.01,2013-01-22 12:53:00,
2013-01-22 05:56:00,25.3,-6.4,30.00,South,184,2.2,4.0,24,0.00,,---,0.00,VWS V14.01,2013-01-22 12:56:00,
2013-01-22 05:57:00,25.3,-6.4,30.00,South,189,4.0,4.0,24,0.00,,---,0.00,VWS V14.01,2013-01-22 12:57:00,
2013-01-22 05:58:00,25.5,-6.2,30.00,South,178,4.0,4.0,24,0.00,,---,0.00,VWS V14.01,2013-01-22 12:58:00,
2013-01-22 05:59:00,25.5,-6.2,30.00,South,172,2.7,4.0,24,0.00,,---,0.00,VWS V14.01,2013-01-22 12:59:00,
2013-01-22 06:01:00,25.3,-6.4,30.00,SSE,166,2.7,3.1,24,0.00,,---,0.00,VWS V14.01,2013-01-22 13:01:00,
2013-01-22 06:02:00,25.3,-6.4,30.00,South,169,2.7,3.1,24,0.00,,---,0.00,VWS V14.01,2013-01-22 13:02:00,
2013-01-22 06:04:00,25.3,-6.4,30.00,SSW,192,0.0,3.1,24,0.00,,---,0.00,VWS V14.01,2013-01-22 13:04:00,
2013-01-22 06:07:00,25.0,-6.7,30.00,South,188,3.6,4.9,24,0.00,,---,0.00,VWS V14.01,2013-01-22 13:07:00,
2013-01-22 06:08:00,25.0,-6.7,30.00,South,187,3.1,4.9,24,0.00,,---,0.00,VWS V14.01,2013-01-22 13:08:00,
2013-01-22 06:09:00,25.0,-6.7,30.00,South,182,0.0,4.9,24,0.00,,---,0.00,VWS V14.01,2013-01-22 13:09:00,
2013-01-22 06:12:00,24.8,-6.9,30.00,South,183,2.7,4.9,24,0.00,,---,0.00,VWS V14.01,2013-01-22 13:12:00,
2013-01-22 06:13:00,24.8,-6.9,30.00,SSW,198,3.1,4.9,24,0.00,,---,0.00,VWS V14.01,2013-01-22 13:13:00,
2013-01-22 06:14:00,24.8,-6.9,30.00,SSW,192,4.0,4.9,24,0.00,,---,0.00,VWS V14.01,2013-01-22 13:14:00,
2013-01-22 06:18:00,25.0,-6.7,30.00,SSW,192,4.0,4.9,24,0.00,,---,0.00,VWS V14.01,2013-01-22 13:18:00,
2013-01-22 06:19:00,25.3,-6.4,30.00,SSW,193,3.1,4.9,24,0.00,,---,0.00,VWS V14.01,2013-01-22 13:19:00,
2013-01-22 06:23:00,25.7,-6.1,30.00,South,178,2.7,4.9,24,0.00,,---,0.00,VWS V14.01,2013-01-22 13:23:00,
2013-01-22 06:24:00,25.7,-6.1,30.00,SSE,156,2.2,4.9,24,0.00,,---,0.00,VWS V14.01,2013-01-22 13:24:00,
2013-01-22 06:25:00,25.7,-6.1,30.00,SSE,156,0.0,4.9,24,0.00,,---,0.00,VWS V14.01,2013-01-22 13:25:00,
2013-01-22 06:28:00,25.3,-6.4,30.00,SSE,155,3.1,4.9,24,0.00,,---,0.00,VWS V14.01,2013-01-22 13:28:00,
2013-01-22 06:29:00,25.0,-6.7,30.00,SSE,155,2.7,4.9,24,0.00,,---,0.00,VWS V14.01,2013-01-22 13:29:00,
2013-01-22 06:30:00,25.0,-6.7,30.00,SSE,155,2.7,4.9,24,0.00,,---,0.00,VWS V14.01,2013-01-22 13:30:00,
2013-01-22 06:33:00,24.3,-7.3,30.00,South,182,2.7,4.0,24,0.00,,---,0.00,VWS V14.01,2013-01-22 13:33:00,
2013-01-22 06:35:00,24.3,-7.3,30.00,South,175,2.2,4.0,24,0.00,,---,0.00,VWS V14.01,2013-01-22 13:35:00,
2013-01-22 06:39:00,24.1,-7.5,30.00,South,186,3.6,4.9,24,0.00,,---,0.00,VWS V14.01,2013-01-22 13:39:00,
2013-01-22 06:40:00,24.1,-7.5,30.00,SSW,195,4.9,4.9,24,0.00,,---,0.00,VWS V14.01,2013-01-22 13:40:00,
2013-01-22 06:44:00,24.3,-7.3,30.00,SSW,193,3.6,5.4,24,0.00,,---,0.00,VWS V14.01,2013-01-22 13:44:00,
2013-01-22 06:45:00,24.3,-7.3,30.00,SSW,196,2.7,4.0,24,0.00,,---,0.00,VWS V14.01,2013-01-22 13:45:00,
2013-01-22 06:49:00,24.6,-7.0,30.00,SSW,193,2.7,5.4,24,0.00,,---,0.00,VWS V14.01,2013-01-22 13:49:00,
2013-01-22 06:50:00,24.8,-6.9,30.00,SSW,193,2.2,5.4,24,0.00,,---,0.00,VWS V14.01,2013-01-22 13:50:00,
2013-01-22 06:51:00,24.8,-6.9,30.00,SSW,193,2.7,5.4,24,0.00,,---,0.00,VWS V14.01,2013-01-22 13:51:00,
2013-01-22 06:54:00,25.3,-9.1,30.00,SSW,205,3.6,5.4,21,0.00,,---,0.00,VWS V14.01,2013-01-22 13:54:00,
2013-01-22 06:55:00,25.3,-9.1,30.00,South,190,4.0,5.4,21,0.00,,---,0.00,VWS V14.01,2013-01-22 13:55:00,
2013-01-22 06:56:00,25.7,-8.8,30.00,South,189,3.6,5.4,21,0.00,,---,0.00,VWS V14.01,2013-01-22 13:56:00,
2013-01-22 06:59:00,26.4,-8.2,30.00,South,189,0.0,5.4,21,0.00,,---,0.00,VWS V14.01,2013-01-22 13:59:00,
2013-01-22 07:00:00,26.4,-8.2,30.00,South,189,0.0,0.0,21,0.00,,---,0.00,VWS V14.01,2013-01-22 14:00:00,
2013-01-22 07:01:00,26.4,-8.2,30.00,South,189,0.0,0.0,21,0.00,,---,0.00,VWS V14.01,2013-01-22 14:01:00,
2013-01-22 07:05:00,26.2,-5.6,30.00,South,188,3.1,3.6,24,0.00,,---,0.00,VWS V14.01,2013-01-22 14:05:00,
2013-01-22 07:06:00,26.1,-5.8,30.00,South,183,2.7,3.6,24,0.00,,---,0.00,VWS V14.01,2013-01-22 14:06:00,
2013-01-22 07:10:00,25.7,-6.1,30.00,South,185,3.6,4.0,24,0.00,,---,0.00,VWS V14.01,2013-01-22 14:10:00,
2013-01-22 07:11:00,25.7,-6.1,30.00,South,181,2.7,4.0,24,0.00,,---,0.00,VWS V14.01,2013-01-22 14:11:00,
2013-01-22 07:12:00,25.5,-9.0,30.00,South,183,3.6,4.0,21,0.00,,---,0.00,VWS V14.01,2013-01-22 14:12:00,
2013-01-22 07:15:00,25.5,-6.2,30.00,South,180,2.7,4.0,24,0.00,,---,0.00,VWS V14.01,2013-01-22 14:15:00,
2013-01-22 07:16:00,25.3,-6.4,30.00,South,171,2.7,2.7,24,0.00,,---,0.00,VWS V14.01,2013-01-22 14:16:00,
2013-01-22 07:17:00,25.3,-6.4,30.00,SSE,165,2.7,2.7,24,0.00,,---,0.00,VWS V14.01,2013-01-22 14:17:00,
2013-01-22 07:20:00,24.4,-7.2,30.00,SSE,164,2.7,3.1,24,0.00,,---,0.00,VWS V14.01,2013-01-22 14:20:00,
2013-01-22 07:21:00,24.3,-7.3,30.00,SSE,162,2.7,3.1,24,0.00,,---,0.00,VWS V14.01,2013-01-22 14:21:00,
2013-01-22 07:22:00,24.3,-7.3,30.00,SSE,162,2.7,3.1,24,0.00,,---,0.00,VWS V14.01,2013-01-22 14:22:00,
2013-01-22 07:25:00,24.3,-7.3,30.00,SSW,195,3.1,5.4,24,0.00,,---,0.00,VWS V14.01,2013-01-22 14:25:00,
2013-01-22 07:27:00,24.3,-7.3,30.00,South,191,4.5,5.4,24,0.00,,---,0.00,VWS V14.01,2013-01-22 14:27:00,
2013-01-22 07:28:00,24.4,-8.9,30.00,SSW,197,4.9,5.4,22,0.00,,---,0.00,VWS V14.01,2013-01-22 14:28:00,
2013-01-22 07:30:00,24.4,-8.9,30.00,SSW,198,3.6,3.6,22,0.00,,---,0.00,VWS V14.01,2013-01-22 14:30:00,
2013-01-22 07:32:00,24.4,-8.9,30.00,SSW,198,0.0,3.6,22,0.00,,---,0.00,VWS V14.01,2013-01-22 14:32:00,
2013-01-22 07:33:00,24.6,-8.8,30.00,SSW,198,2.7,3.6,22,0.00,,---,0.00,VWS V14.01,2013-01-22 14:33:00,
2013-01-22 07:35:00,24.8,-8.6,30.00,SSW,198,0.0,3.6,22,0.00,,---,0.00,VWS V14.01,2013-01-22 14:35:00,
2013-01-22 07:37:00,24.8,-8.6,30.00,SSW,198,0.0,3.6,22,0.00,,---,0.00,VWS V14.01,2013-01-22 14:37:00,
2013-01-22 07:38:00,24.8,-8.6,30.00,SSW,198,0.0,3.6,22,0.00,,---,0.00,VWS V14.01,2013-01-22 14:38:00,
2013-01-22 07:40:00,24.8,-8.6,30.00,SSW,198,3.1,3.6,22,0.00,,---,0.00,VWS V14.01,2013-01-22 14:40:00,
2013-01-22 07:42:00,24.8,-8.6,30.00,SSW,197,0.0,3.6,22,0.00,,---,0.00,VWS V14.01,2013-01-22 14:42:00,
2013-01-22 07:43:00,24.8,-8.6,30.00,SSW,197,0.0,3.6,22,0.00,,---,0.00,VWS V14.01,2013-01-22 14:43:00,
2013-01-22 07:46:00,25.0,-9.4,30.00,SSW,196,3.6,4.0,21,0.00,,---,0.00,VWS V14.01,2013-01-22 14:46:00,
2013-01-22 07:47:00,25.2,-9.3,30.00,SSW,196,3.1,4.0,21,0.00,,---,0.00,VWS V14.01,2013-01-22 14:47:00,
2013-01-22 07:48:00,25.2,-9.3,30.00,SSW,196,2.2,4.0,21,0.00,,---,0.00,VWS V14.01,2013-01-22 14:48:00,
2013-01-22 07:49:00,25.2,-9.3,30.00,SSW,196,0.0,4.0,21,0.00,,---,0.00,VWS V14.01,2013-01-22 14:49:00,
2013-01-22 07:51:00,25.3,-9.1,30.00,South,190,3.6,4.0,21,0.00,,---,0.00,VWS V14.01,2013-01-22 14:51:00,
2013-01-22 07:53:00,25.3,-9.1,30.00,South,189,3.6,4.0,21,0.00,,---,0.00,VWS V14.01,2013-01-22 14:53:00,
2013-01-22 07:54:00,25.5,-9.0,30.00,South,190,3.1,4.0,21,0.00,,---,0.00,VWS V14.01,2013-01-22 14:54:00,
2013-01-22 07:56:00,25.5,-9.0,30.00,South,191,0.0,4.0,21,0.00,,---,0.00,VWS V14.01,2013-01-22 14:56:00,
2013-01-22 07:58:00,25.7,-8.8,30.00,South,190,3.1,4.0,21,0.00,,---,0.00,VWS V14.01,2013-01-22 14:58:00,
2013-01-22 07:59:00,25.7,-8.8,30.00,South,190,2.2,4.0,21,0.00,,---,0.00,VWS V14.01,2013-01-22 14:59:00,
2013-01-22 08:02:00,25.5,-9.0,30.00,SSW,193,3.6,4.0,21,0.00,,---,0.00,VWS V14.01,2013-01-22 15:02:00,
2013-01-22 08:03:00,25.3,-9.1,30.00,South,190,3.1,4.0,21,0.00,,---,0.00,VWS V14.01,2013-01-22 15:03:00,
2013-01-22 08:04:00,25.3,-9.1,30.00,South,188,2.7,4.0,21,0.00,,---,0.00,VWS V14.01,2013-01-22 15:04:00,
2013-01-22 08:07:00,25.2,-9.3,30.00,South,186,3.6,4.0,21,0.00,,---,0.00,VWS V14.01,2013-01-22 15:07:00,
2013-01-22 08:08:00,25.0,-9.4,30.00,South,189,2.7,4.0,21,0.00,,---,0.00,VWS V14.01,2013-01-22 15:08:00,
2013-01-22 08:09:00,25.0,-9.4,30.00,SSW,194,3.1,4.0,21,0.00,,---,0.00,VWS V14.01,2013-01-22 15:09:00,
2013-01-22 08:13:00,25.0,-9.4,30.00,SSW,195,0.0,5.4,21,0.00,,---,0.00,VWS V14.01,2013-01-22 15:13:00,
2013-01-22 08:14:00,25.0,-9.4,30.00,SSW,194,2.7,5.4,21,0.00,,---,0.00,VWS V14.01,2013-01-22 15:14:00,
2013-01-22 08:18:00,25.3,-9.1,30.00,South,184,4.0,4.9,21,0.00,,---,0.00,VWS V14.01,2013-01-22 15:18:00,
2013-01-22 08:19:00,25.3,-9.1,30.00,South,184,0.0,4.9,21,0.00,,---,0.00,VWS V14.01,2013-01-22 15:19:00,
2013-01-22 08:23:00,25.7,-8.8,30.00,South,187,2.2,4.9,21,0.00,,---,0.00,VWS V14.01,2013-01-22 15:23:00,
2013-01-22 08:24:00,25.7,-8.8,30.00,South,185,2.7,4.9,21,0.00,,---,0.00,VWS V14.01,2013-01-22 15:24:00,
2013-01-22 08:25:00,25.7,-8.8,30.00,South,191,4.0,4.9,21,0.00,,---,0.00,VWS V14.01,2013-01-22 15:25:00,
2013-01-22 08:28:00,25.7,-8.8,30.03,South,191,3.1,4.9,21,0.00,,---,0.00,VWS V14.01,2013-01-22 15:28:00,
2013-01-22 08:29:00,25.5,-9.0,30.03,South,190,3.6,4.9,21,0.00,,---,0.00,VWS V14.01,2013-01-22 15:29:00,
2013-01-22 08:30:00,25.5,-9.0,30.03,South,190,4.0,4.9,21,0.00,,---,0.00,VWS V14.01,2013-01-22 15:30:00,
2013-01-22 08:32:00,25.5,-9.0,30.03,South,180,2.7,4.0,21,0.00,,---,0.00,VWS V14.01,2013-01-22 15:32:00,
2013-01-22 08:33:00,25.3,-9.1,30.03,South,183,3.6,4.0,21,0.00,,---,0.00,VWS V14.01,2013-01-22 15:33:00,
2013-01-22 08:35:00,25.3,-9.1,30.03,South,183,3.6,4.0,21,0.00,,---,0.00,VWS V14.01,2013-01-22 15:35:00,
2013-01-22 08:38:00,25.3,-9.1,30.03,SSW,192,2.2,4.0,21,0.00,,---,0.00,VWS V14.01,2013-01-22 15:38:00,
2013-01-22 08:40:00,25.5,-9.0,30.03,South,184,3.1,4.0,21,0.00,,---,0.00,VWS V14.01,2013-01-22 15:40:00,
2013-01-22 08:43:00,25.9,-8.7,30.03,SSW,197,3.1,5.4,21,0.00,,---,0.00,VWS V14.01,2013-01-22 15:43:00,
2013-01-22 08:45:00,26.1,-8.5,30.03,SSW,192,3.6,5.4,21,0.00,,---,0.00,VWS V14.01,2013-01-22 15:45:00,
2013-01-22 08:48:00,26.6,-8.1,30.03,South,189,4.0,4.9,21,0.00,,---,0.00,VWS V14.01,2013-01-22 15:48:00,
2013-01-22 08:49:00,26.6,-8.1,30.03,South,189,4.0,4.9,21,0.00,,---,0.00,VWS V14.01,2013-01-22 15:49:00,
2013-01-22 08:50:00,26.8,-7.9,30.03,SSW,194,4.0,4.9,21,0.00,,---,0.00,VWS V14.01,2013-01-22 15:50:00,
2013-01-22 08:54:00,27.1,-7.6,30.03,SSW,194,3.6,5.8,21,0.00,,---,0.00,VWS V14.01,2013-01-22 15:54:00,
2013-01-22 08:55:00,27.3,-7.4,30.03,SSW,196,4.0,5.8,21,0.00,,---,0.00,VWS V14.01,2013-01-22 15:55:00,
2013-01-22 08:59:00,27.7,-7.2,30.03,SSW,202,3.6,5.8,21,0.00,,---,0.00,VWS V14.01,2013-01-22 15:59:00,
2013-01-22 09:00:00,27.9,-7.0,30.03,SSW,197,4.0,4.0,21,0.00,,---,0.00,VWS V14.01,2013-01-22 16:00:00,
2013-01-22 09:04:00,28.4,-6.5,30.03,SSW,193,4.0,5.4,21,0.00,,---,0.00,VWS V14.01,2013-01-22 16:04:00,
2013-01-22 09:05:00,28.6,-7.4,30.03,SSW,200,2.2,5.4,20,0.00,,---,0.00,VWS V14.01,2013-01-22 16:05:00,
2013-01-22 09:06:00,28.8,-7.2,30.03,SSW,200,2.7,5.4,20,0.00,,---,0.00,VWS V14.01,2013-01-22 16:06:00,
2013-01-22 09:09:00,29.5,-6.6,30.03,SSW,194,4.0,5.4,20,0.00,,---,0.00,VWS V14.01,2013-01-22 16:09:00,
2013-01-22 09:10:00,29.7,-6.5,30.03,South,190,2.7,5.4,20,0.00,,---,0.00,VWS V14.01,2013-01-22 16:10:00,
2013-01-22 09:11:00,29.8,-6.3,30.03,South,190,0.0,5.4,20,0.00,,---,0.00,VWS V14.01,2013-01-22 16:11:00,
2013-01-22 09:14:00,30.0,-6.2,30.03,South,171,2.7,5.4,20,0.00,,---,0.00,VWS V14.01,2013-01-22 16:14:00,
2013-01-22 09:15:00,30.0,-6.2,30.03,South,173,2.7,2.7,20,0.00,,---,0.00,VWS V14.01,2013-01-22 16:15:00,
2013-01-22 09:16:00,30.0,-6.2,30.03,SSW,193,4.0,4.0,20,0.00,,---,0.00,VWS V14.01,2013-01-22 16:16:00,
2013-01-22 09:19:00,29.8,-6.3,30.03,South,185,3.1,4.0,20,0.00,,---,0.00,VWS V14.01,2013-01-22 16:19:00,
2013-01-22 09:20:00,30.0,-6.2,30.03,SSW,195,3.6,4.0,20,0.00,,---,0.00,VWS V14.01,2013-01-22 16:20:00,
2013-01-22 09:22:00,30.0,-6.2,30.03,SSW,195,2.2,4.0,20,0.00,,---,0.00,VWS V14.01,2013-01-22 16:22:00,
2013-01-22 09:24:00,30.2,-6.0,30.03,SSW,193,3.1,4.0,20,0.00,,---,0.00,VWS V14.01,2013-01-22 16:24:00,
2013-01-22 09:25:00,30.2,-6.0,30.03,SSW,193,2.2,4.0,20,0.00,,---,0.00,VWS V14.01,2013-01-22 16:25:00,
2013-01-22 09:27:00,30.4,-5.9,30.03,SSW,192,2.7,4.0,20,0.00,,---,0.00,VWS V14.01,2013-01-22 16:27:00,
2013-01-22 09:29:00,30.6,-5.7,30.03,South,190,2.2,4.0,20,0.00,,---,0.00,VWS V14.01,2013-01-22 16:29:00,
2013-01-22 09:30:00,30.6,-5.7,30.03,South,190,0.0,2.2,20,0.00,,---,0.00,VWS V14.01,2013-01-22 16:30:00,
2013-01-22 09:32:00,30.7,-5.6,30.03,South,190,0.0,2.2,20,0.00,,---,0.00,VWS V14.01,2013-01-22 16:32:00,
2013-01-22 09:34:00,30.7,-5.6,30.03,South,182,2.7,2.7,20,0.00,,---,0.00,VWS V14.01,2013-01-22 16:34:00,
2013-01-22 09:35:00,30.7,-5.6,30.03,South,171,2.7,2.7,20,0.00,,---,0.00,VWS V14.01,2013-01-22 16:35:00,
2013-01-22 09:36:00,30.7,-5.6,30.03,South,171,2.2,2.7,20,0.00,,---,0.00,VWS V14.01,2013-01-22 16:36:00,
2013-01-22 09:37:00,30.6,-5.7,30.03,SSE,167,2.7,2.7,20,0.00,,---,0.00,VWS V14.01,2013-01-22 16:37:00,
2013-01-22 09:39:00,30.4,-5.9,30.03,SSE,164,2.7,2.7,20,0.00,,---,0.00,VWS V14.01,2013-01-22 16:39:00,
2013-01-22 09:41:00,30.2,-6.0,30.03,SSE,149,3.1,3.1,20,0.00,,---,0.00,VWS V14.01,2013-01-22 16:41:00,
2013-01-22 09:42:00,30.2,-6.0,30.03,SSE,151,2.7,3.1,20,0.00,,---,0.00,VWS V14.01,2013-01-22 16:42:00,
2013-01-22 09:44:00,29.8,-6.3,30.03,SSE,151,2.2,3.1,20,0.00,,---,0.00,VWS V14.01,2013-01-22 16:44:00,
2013-01-22 09:46:00,29.7,-6.5,30.03,SSE,149,2.2,2.7,20,0.00,,---,0.00,VWS V14.01,2013-01-22 16:46:00,
2013-01-22 09:47:00,29.7,-6.5,30.03,SSE,149,2.2,2.7,20,0.00,,---,0.00,VWS V14.01,2013-01-22 16:47:00,
2013-01-22 09:49:00,29.7,-6.5,30.03,SSE,149,2.7,2.7,20,0.00,,---,0.00,VWS V14.01,2013-01-22 16:49:00,
2013-01-22 09:52:00,29.8,-6.3,30.03,SSE,149,2.2,2.7,20,0.00,,---,0.00,VWS V14.01,2013-01-22 16:52:00,
2013-01-22 09:55:00,30.0,-6.2,30.03,SSE,147,0.0,2.7,20,0.00,,---,0.00,VWS V14.01,2013-01-22 16:55:00,
2013-01-22 09:57:00,30.2,-6.0,30.03,SSE,147,0.0,2.7,20,0.00,,---,0.00,VWS V14.01,2013-01-22 16:57:00,
2013-01-22 10:00:00,30.4,-5.9,30.03,South,183,2.7,2.7,20,0.00,,---,0.00,VWS V14.01,2013-01-22 17:00:00,
2013-01-22 10:02:00,30.9,-5.4,30.03,South,185,2.7,3.6,20,0.00,,---,0.00,VWS V14.01,2013-01-22 17:02:00,
2013-01-22 10:03:00,30.9,-5.4,30.03,South,189,3.6,3.6,20,0.00,,---,0.00,VWS V14.01,2013-01-22 17:03:00,
2013-01-22 10:05:00,31.1,-5.3,30.03,South,182,2.2,3.6,20,0.00,,---,0.00,VWS V14.01,2013-01-22 17:05:00,
2013-01-22 10:07:00,31.5,-5.0,30.03,South,180,2.7,3.6,20,0.00,,---,0.00,VWS V14.01,2013-01-22 17:07:00,
2013-01-22 10:08:00,31.6,-4.8,30.03,South,177,2.2,3.6,20,0.00,,---,0.00,VWS V14.01,2013-01-22 17:08:00,
2013-01-22 10:11:00,31.6,-4.8,30.03,South,176,0.0,3.6,20,0.00,,---,0.00,VWS V14.01,2013-01-22 17:11:00,
2013-01-22 10:12:00,31.8,-4.7,30.03,South,176,2.2,3.6,20,0.00,,---,0.00,VWS V14.01,2013-01-22 17:12:00,
2013-01-22 10:13:00,31.8,-4.7,30.03,South,175,2.2,3.6,20,0.00,,---,0.00,VWS V14.01,2013-01-22 17:13:00,
2013-01-22 10:14:00,32.0,-4.5,30.03,South,172,2.2,3.6,20,0.00,,---,0.00,VWS V14.01,2013-01-22 17:14:00,
2013-01-22 10:16:00,32.2,-4.4,30.03,South,172,0.0,2.2,20,0.00,,---,0.00,VWS V14.01,2013-01-22 17:16:00,
2013-01-22 10:18:00,32.4,-4.2,30.03,South,181,2.2,3.1,20,0.00,,---,0.00,VWS V14.01,2013-01-22 17:18:00,
2013-01-22 10:19:00,32.4,-4.2,30.03,South,182,0.0,3.1,20,0.00,,---,0.00,VWS V14.01,2013-01-22 17:19:00,
2013-01-22 10:21:00,32.5,-4.1,30.03,South,182,2.7,3.1,20,0.00,,---,0.00,VWS V14.01,2013-01-22 17:21:00,
2013-01-22 10:23:00,32.7,-3.9,30.03,South,182,0.0,3.1,20,0.00,,---,0.00,VWS V14.01,2013-01-22 17:23:00,
2013-01-22 10:24:00,32.7,-3.9,30.03,South,180,3.1,3.1,20,0.00,,---,0.00,VWS V14.01,2013-01-22 17:24:00,
2013-01-22 10:26:00,33.1,-3.6,30.03,South,178,2.7,3.1,20,0.00,,---,0.00,VWS V14.01,2013-01-22 17:26:00,
2013-01-22 10:28:00,33.3,-3.5,30.06,South,178,2.2,3.1,20,0.00,,---,0.00,VWS V14.01,2013-01-22 17:28:00,
2013-01-22 10:29:00,33.4,-3.3,30.06,South,178,0.0,3.1,20,0.00,,---,0.00,VWS V14.01,2013-01-22 17:29:00,
2013-01-22 10:31:00,33.6,-3.2,30.06,South,178,2.7,2.7,20,0.00,,---,0.00,VWS V14.01,2013-01-22 17:31:00,
2013-01-22 10:32:00,33.8,-3.0,30.06,South,178,2.7,3.1,20,0.00,,---,0.00,VWS V14.01,2013-01-22 17:32:00,
2013-01-22 10:33:00,34.0,-2.9,30.06,ENE,73,3.1,4.0,20,0.00,,---,0.00,VWS V14.01,2013-01-22 17:33:00,
2013-01-22 10:34:00,34.0,-2.9,30.06,ENE,58,2.2,4.0,20,0.00,,---,0.00,VWS V14.01,2013-01-22 17:34:00,
2013-01-22 10:36:00,34.3,-2.6,30.06,NE,51,2.7,4.0,20,0.00,,---,0.00,VWS V14.01,2013-01-22 17:36:00,
2013-01-22 10:37:00,34.3,-2.6,30.06,NE,51,0.0,4.0,20,0.00,,---,0.00,VWS V14.01,2013-01-22 17:37:00,
2013-01-22 10:38:00,34.3,-2.6,30.06,NE,46,2.7,4.0,20,0.00,,---,0.00,VWS V14.01,2013-01-22 17:38:00,
2013-01-22 10:39:00,34.3,-2.6,30.06,NNE,22,3.6,4.0,20,0.00,,---,0.00,VWS V14.01,2013-01-22 17:39:00,
2013-01-22 10:42:00,34.3,-2.6,30.06,North,4,2.2,4.0,20,0.00,,---,0.00,VWS V14.01,2013-01-22 17:42:00,
2013-01-22 10:43:00,34.3,-2.6,30.06,North,10,3.1,4.0,20,0.00,,---,0.00,VWS V14.01,2013-01-22 17:43:00,
2013-01-22 10:45:00,34.3,-2.6,30.06,North,3,3.6,4.0,20,0.00,,---,0.00,VWS V14.01,2013-01-22 17:45:00,
2013-01-22 10:47:00,34.3,-2.6,30.06,North,6,2.7,3.1,20,0.00,,---,0.00,VWS V14.01,2013-01-22 17:47:00,
2013-01-22 10:48:00,34.3,-2.6,30.06,North,11,0.0,3.1,20,0.00,,---,0.00,VWS V14.01,2013-01-22 17:48:00,
2013-01-22 10:50:00,34.3,-2.6,30.06,NE,38,2.7,3.1,20,0.00,,---,0.00,VWS V14.01,2013-01-22 17:50:00,
2013-01-22 10:52:00,34.2,-2.7,30.06,NNE,22,2.2,3.1,20,0.00,,---,0.00,VWS V14.01,2013-01-22 17:52:00,
2013-01-22 10:53:00,34.2,-2.7,30.06,NNE,22,2.2,3.1,20,0.00,,---,0.00,VWS V14.01,2013-01-22 17:53:00,
2013-01-22 10:54:00,34.2,-2.7,30.06,NNE,22,2.7,3.1,20,0.00,,---,0.00,VWS V14.01,2013-01-22 17:54:00,
2013-01-22 10:55:00,34.2,-2.7,30.06,NNE,16,2.2,3.1,20,0.00,,---,0.00,VWS V14.01,2013-01-22 17:55:00,
2013-01-22 10:57:00,34.2,-2.7,30.06,NNE,16,2.2,3.1,20,0.00,,---,0.00,VWS V14.01,2013-01-22 17:57:00,
2013-01-22 10:58:00,34.2,-2.7,30.06,North,9,3.1,3.1,20,0.00,,---,0.00,VWS V14.01,2013-01-22 17:58:00,
2013-01-22 10:59:00,34.2,-2.7,30.06,North,6,2.7,3.6,20,0.00,,---,0.00,VWS V14.01,2013-01-22 17:59:00,
2013-01-22 11:00:00,34.2,-6.1,30.06,North,6,2.7,3.6,17,0.00,,---,0.00,VWS V14.01,2013-01-22 18:00:00,
2013-01-22 11:03:00,34.3,-5.9,30.06,North,4,3.1,3.1,17,0.00,,---,0.00,VWS V14.01,2013-01-22 18:03:00,
2013-01-22 11:04:00,34.3,-2.6,30.06,North,357,2.7,3.1,20,0.00,,---,0.00,VWS V14.01,2013-01-22 18:04:00,
2013-01-22 11:05:00,34.3,-2.6,30.06,North,0,2.7,3.1,20,0.00,,---,0.00,VWS V14.01,2013-01-22 18:05:00,
2013-01-22 11:08:00,34.5,-2.4,30.06,North,10,2.7,3.6,20,0.00,,---,0.00,VWS V14.01,2013-01-22 18:08:00,
2013-01-22 11:10:00,34.5,-2.4,30.06,North,11,2.2,3.6,20,0.00,,---,0.00,VWS V14.01,2013-01-22 18:10:00,
2013-01-22 11:13:00,34.5,-2.4,30.06,North,10,2.7,3.6,20,0.00,,---,0.00,VWS V14.01,2013-01-22 18:13:00,
2013-01-22 11:15:00,34.5,-2.4,30.06,North,7,3.1,3.6,20,0.00,,---,0.00,VWS V14.01,2013-01-22 18:15:00,
2013-01-22 11:19:00,34.5,-2.4,30.06,North,6,3.6,3.6,20,0.00,,---,0.00,VWS V14.01,2013-01-22 18:19:00,
2013-01-22 11:20:00,34.7,-2.3,30.06,North,9,3.1,3.6,20,0.00,,---,0.00,VWS V14.01,2013-01-22 18:20:00,
2013-01-22 11:24:00,34.5,-2.4,30.06,North,11,2.7,3.6,20,0.00,,---,0.00,VWS V14.01,2013-01-22 18:24:00,
2013-01-22 11:25:00,34.5,-2.4,30.06,NNE,13,2.7,3.6,20,0.00,,---,0.00,VWS V14.01,2013-01-22 18:25:00,
2013-01-22 11:26:00,34.5,-2.4,30.06,NNE,12,2.7,3.6,20,0.00,,---,0.00,VWS V14.01,2013-01-22 18:26:00,
2013-01-22 11:29:00,34.5,-2.4,30.06,North,7,3.6,3.6,20,0.00,,---,0.00,VWS V14.01,2013-01-22 18:29:00,
2013-01-22 11:30:00,34.5,-2.4,30.06,North,9,2.7,2.7,20,0.00,,---,0.00,VWS V14.01,2013-01-22 18:30:00,
2013-01-22 11:31:00,34.5,-2.4,30.06,North,9,0.0,2.7,20,0.00,,---,0.00,VWS V14.01,2013-01-22 18:31:00,
2013-01-22 11:34:00,34.7,-2.3,30.06,North,11,2.7,4.0,20,0.00,,---,0.00,VWS V14.01,2013-01-22 18:34:00,
2013-01-22 11:35:00,34.5,-2.4,30.06,North,11,3.1,4.0,20,0.00,,---,0.00,VWS V14.01,2013-01-22 18:35:00,
2013-01-22 11:36:00,34.5,-2.4,30.06,North,11,3.1,4.0,20,0.00,,---,0.00,VWS V14.01,2013-01-22 18:36:00,
2013-01-22 11:39:00,34.5,-2.4,30.06,North,11,4.0,4.0,20,0.00,,---,0.00,VWS V14.01,2013-01-22 18:39:00,
2013-01-22 11:40:00,34.5,-2.4,30.06,NNE,15,3.6,4.0,20,0.00,,---,0.00,VWS V14.01,2013-01-22 18:40:00,
2013-01-22 11:41:00,34.5,-2.4,30.06,NNE,18,3.1,4.0,20,0.00,,---,0.00,VWS V14.01,2013-01-22 18:41:00,
2013-01-22 11:42:00,34.5,-2.4,30.06,NNE,12,2.7,4.0,20,0.00,,---,0.00,VWS V14.01,2013-01-22 18:42:00,
2013-01-22 11:45:00,34.2,-2.7,30.06,North,9,2.7,5.8,20,0.00,,---,0.00,VWS V14.01,2013-01-22 18:45:00,
2013-01-22 11:46:00,34.0,-2.9,30.06,North,9,2.7,3.1,20,0.00,,---,0.00,VWS V14.01,2013-01-22 18:46:00,
2013-01-22 11:47:00,34.0,-2.9,30.06,North,9,2.7,3.1,20,0.00,,---,0.00,VWS V14.01,2013-01-22 18:47:00,
2013-01-22 11:50:00,34.0,-2.9,30.06,North,6,2.2,3.1,20,0.00,,---,0.00,VWS V14.01,2013-01-22 18:50:00,
2013-01-22 11:51:00,34.2,-2.7,30.06,North,6,0.0,3.1,20,0.00,,---,0.00,VWS V14.01,2013-01-22 18:51:00,
2013-01-22 11:52:00,34.2,-2.7,30.06,North,6,0.0,3.1,20,0.00,,---,0.00,VWS V14.01,2013-01-22 18:52:00,
2013-01-22 11:55:00,34.5,-2.4,30.06,North,6,0.0,3.1,20,0.00,,---,0.00,VWS V14.01,2013-01-22 18:55:00,
2013-01-22 11:57:00,34.7,-2.3,30.06,North,6,3.1,3.1,20,0.00,,---,0.00,VWS V14.01,2013-01-22 18:57:00,
2013-01-22 12:00:00,34.9,-2.1,30.06,NE,36,2.2,2.2,20,0.00,,---,0.00,VWS V14.01,2013-01-22 19:00:00,
2013-01-22 12:01:00,35.1,-2.0,30.06,NE,51,2.2,2.2,20,0.00,,---,0.00,VWS V14.01,2013-01-22 19:01:00,
2013-01-22 12:02:00,35.2,-1.8,30.06,NE,51,0.0,2.2,20,0.00,,---,0.00,VWS V14.01,2013-01-22 19:02:00,
2013-01-22 12:05:00,35.6,-2.6,30.06,NE,53,0.0,2.2,19,0.00,,---,0.00,VWS V14.01,2013-01-22 19:05:00,
2013-01-22 12:07:00,35.8,-2.4,30.06,ENE,73,2.2,2.2,19,0.00,,---,0.00,VWS V14.01,2013-01-22 19:07:00,
2013-01-22 12:10:00,36.1,-2.1,30.06,ESE,112,2.2,2.2,19,0.00,,---,0.00,VWS V14.01,2013-01-22 19:10:00,
2013-01-22 12:12:00,36.3,-2.0,30.06,SSE,154,2.2,2.7,19,0.00,,---,0.00,VWS V14.01,2013-01-22 19:12:00,
2013-01-22 12:13:00,36.5,-1.8,30.06,SSE,154,2.2,2.7,19,0.00,,---,0.00,VWS V14.01,2013-01-22 19:13:00,
2013-01-22 12:15:00,36.7,-1.7,30.06,SSE,154,2.2,2.7,19,0.00,,---,0.00,VWS V14.01,2013-01-22 19:15:00,
2013-01-22 12:17:00,36.9,-1.5,30.06,SSE,154,0.0,2.2,19,0.00,,---,0.00,VWS V14.01,2013-01-22 19:17:00,
2013-01-22 12:18:00,36.9,1.6,30.06,SSE,154,0.0,2.2,22,0.00,,---,0.00,VWS V14.01,2013-01-22 19:18:00,
2013-01-22 12:20:00,36.9,1.6,30.06,SSE,154,0.0,2.2,22,0.00,,---,0.00,VWS V14.01,2013-01-22 19:20:00,
2013-01-22 12:22:00,36.7,1.4,30.06,SSE,154,0.0,2.2,22,0.00,,---,0.00,VWS V14.01,2013-01-22 19:22:00,
2013-01-22 12:23:00,36.7,1.4,30.06,SSE,154,0.0,2.2,22,0.00,,---,0.00,VWS V14.01,2013-01-22 19:23:00,
2013-01-22 12:25:00,36.7,-1.7,30.06,SSE,154,0.0,2.2,19,0.00,,---,0.00,VWS V14.01,2013-01-22 19:25:00,
2013-01-22 12:27:00,36.7,1.4,30.03,SSE,154,0.0,2.2,22,0.00,,---,0.00,VWS V14.01,2013-01-22 19:27:00,
2013-01-22 12:28:00,36.7,1.4,30.03,SSE,154,0.0,2.2,22,0.00,,---,0.00,VWS V14.01,2013-01-22 19:28:00,
2013-01-22 12:30:00,36.9,1.6,30.03,SSE,154,0.0,0.0,22,0.00,,---,0.00,VWS V14.01,2013-01-22 19:30:00,
2013-01-22 12:33:00,37.0,1.7,30.03,SSE,154,0.0,0.0,22,0.00,,---,0.00,VWS V14.01,2013-01-22 19:33:00,
2013-01-22 12:37:00,37.9,1.5,30.03,East,83,3.6,3.6,21,0.00,,---,0.00,VWS V14.01,2013-01-22 19:37:00,
2013-01-22 12:38:00,37.9,-0.6,30.03,NNE,18,2.7,3.6,19,0.00,,---,0.00,VWS V14.01,2013-01-22 19:38:00,
2013-01-22 12:42:00,38.1,-0.5,30.03,North,0,3.1,3.6,19,0.00,,---,0.00,VWS V14.01,2013-01-22 19:42:00,
2013-01-22 12:43:00,38.1,-0.5,30.06,North,0,3.1,3.6,19,0.00,,---,0.00,VWS V14.01,2013-01-22 19:43:00,
2013-01-22 12:47:00,38.1,-0.5,30.06,NNE,12,3.6,4.0,19,0.00,,---,0.00,VWS V14.01,2013-01-22 19:47:00,
2013-01-22 12:48:00,38.1,-0.5,30.06,North,11,3.6,4.0,19,0.00,,---,0.00,VWS V14.01,2013-01-22 19:48:00,
2013-01-22 12:52:00,37.6,-0.9,30.06,North,10,3.1,4.0,19,0.00,,---,0.00,VWS V14.01,2013-01-22 19:52:00,
2013-01-22 12:53:00,37.4,-1.1,30.06,North,10,2.7,4.0,19,0.00,,---,0.00,VWS V14.01,2013-01-22 19:53:00,
2013-01-22 12:54:00,37.2,-1.2,30.06,North,9,2.7,4.0,19,0.00,,---,0.00,VWS V14.01,2013-01-22 19:54:00,
2013-01-22 12:57:00,37.2,-1.2,30.06,North,8,2.7,4.0,19,0.00,,---,0.00,VWS V14.01,2013-01-22 19:57:00,
2013-01-22 12:58:00,37.2,-1.2,30.06,North,4,3.1,4.0,19,0.00,,---,0.00,VWS V14.01,2013-01-22 19:58:00,
2013-01-22 12:59:00,37.2,-1.2,30.06,North,3,2.7,4.0,19,0.00,,---,0.00,VWS V14.01,2013-01-22 19:59:00,
2013-01-22 13:02:00,37.4,-1.1,30.06,North,3,0.0,2.2,19,0.00,,---,0.00,VWS V14.01,2013-01-22 20:02:00,
2013-01-22 13:03:00,37.4,-1.1,30.06,North,3,2.2,2.2,19,0.00,,---,0.00,VWS V14.01,2013-01-22 20:03:00,
2013-01-22 13:04:00,37.6,-0.9,30.06,North,3,2.2,3.1,19,0.00,,---,0.00,VWS V14.01,2013-01-22 20:04:00,
2013-01-22 13:07:00,37.6,1.2,30.06,North,3,0.0,3.1,21,0.00,,---,0.00,VWS V14.01,2013-01-22 20:07:00,
2013-01-22 13:08:00,37.6,1.2,30.06,North,4,0.0,3.1,21,0.00,,---,0.00,VWS V14.01,2013-01-22 20:08:00,
2013-01-22 13:09:00,37.6,1.2,30.06,North,3,0.0,3.1,21,0.00,,---,0.00,VWS V14.01,2013-01-22 20:09:00,
2013-01-22 13:10:00,37.6,1.2,30.06,North,4,0.0,3.1,21,0.00,,---,0.00,VWS V14.01,2013-01-22 20:10:00,
2013-01-22 13:13:00,37.6,1.2,30.06,NNE,15,0.0,3.1,21,0.00,,---,0.00,VWS V14.01,2013-01-22 20:13:00,
2013-01-22 13:14:00,37.8,1.4,30.06,NNE,24,0.0,3.1,21,0.00,,---,0.00,VWS V14.01,2013-01-22 20:14:00,
2013-01-22 13:15:00,37.8,1.4,30.06,NNE,27,0.0,3.1,21,0.00,,---,0.00,VWS V14.01,2013-01-22 20:15:00,
2013-01-22 13:18:00,38.1,1.6,30.06,NE,37,0.0,0.0,21,0.00,,---,0.00,VWS V14.01,2013-01-22 20:18:00,
2013-01-22 13:20:00,38.1,1.6,30.06,NE,40,0.0,0.0,21,0.00,,---,0.00,VWS V14.01,2013-01-22 20:20:00,
2013-01-22 13:23:00,38.3,1.8,30.06,NE,42,0.0,0.0,21,0.00,,---,0.00,VWS V14.01,2013-01-22 20:23:00,
2013-01-22 13:24:00,38.3,1.8,30.06,NE,42,0.0,0.0,21,0.00,,---,0.00,VWS V14.01,2013-01-22 20:24:00,
2013-01-22 13:25:00,38.3,1.8,30.06,NE,42,0.0,0.0,21,0.00,,---,0.00,VWS V14.01,2013-01-22 20:25:00,
2013-01-22 13:29:00,38.1,1.6,30.03,NE,42,0.0,0.0,21,0.00,,---,0.00,VWS V14.01,2013-01-22 20:29:00,
2013-01-22 13:30:00,38.1,1.6,30.03,NE,42,0.0,0.0,21,0.00,,---,0.00,VWS V14.01,2013-01-22 20:30:00,
2013-01-22 13:31:00,38.1,1.6,30.03,NE,42,0.0,0.0,21,0.00,,---,0.00,VWS V14.01,2013-01-22 20:31:00,
2013-01-22 13:34:00,37.9,1.5,30.03,NE,42,0.0,0.0,21,0.00,,---,0.00,VWS V14.01,2013-01-22 20:34:00,
2013-01-22 13:35:00,37.9,1.5,30.03,NE,42,0.0,0.0,21,0.00,,---,0.00,VWS V14.01,2013-01-22 20:35:00,
2013-01-22 13:36:00,37.8,1.4,30.03,NE,42,0.0,0.0,21,0.00,,---,0.00,VWS V14.01,2013-01-22 20:36:00,
2013-01-22 13:39:00,37.6,1.2,30.03,NE,42,0.0,0.0,21,0.00,,---,0.00,VWS V14.01,2013-01-22 20:39:00,
2013-01-22 13:40:00,37.6,1.2,30.03,NE,42,0.0,0.0,21,0.00,,---,0.00,VWS V14.01,2013-01-22 20:40:00,
2013-01-22 13:41:00,37.6,1.2,30.03,NE,42,0.0,0.0,21,0.00,,---,0.00,VWS V14.01,2013-01-22 20:41:00,
2013-01-22 13:45:00,37.4,1.0,30.03,NNE,20,0.0,3.1,21,0.00,,---,0.00,VWS V14.01,2013-01-22 20:45:00,
2013-01-22 13:46:00,37.4,1.0,30.03,NNE,20,2.2,2.2,21,0.00,,---,0.00,VWS V14.01,2013-01-22 20:46:00,
2013-01-22 13:50:00,37.0,1.7,30.03,NNE,12,3.6,4.0,22,0.00,,---,0.00,VWS V14.01,2013-01-22 20:50:00,
2013-01-22 13:51:00,36.9,1.6,30.03,North,11,3.1,4.0,22,0.00,,---,0.00,VWS V14.01,2013-01-22 20:51:00,
2013-01-22 13:55:00,36.5,1.3,30.03,North,11,2.7,4.0,22,0.00,,---,0.00,VWS V14.01,2013-01-22 20:55:00,
2013-01-22 13:56:00,36.3,1.1,30.03,North,7,3.1,4.0,22,0.00,,---,0.00,VWS V14.01,2013-01-22 20:56:00,
2013-01-22 13:57:00,36.1,1.0,30.03,North,8,3.1,4.0,22,0.00,,---,0.00,VWS V14.01,2013-01-22 20:57:00,
2013-01-22 14:00:00,35.6,0.5,30.03,North,8,2.7,2.7,22,0.00,,---,0.00,VWS V14.01,2013-01-22 21:00:00,
2013-01-22 14:02:00,35.4,0.4,30.03,North,9,2.7,3.1,22,0.00,,---,0.00,VWS V14.01,2013-01-22 21:02:00,
2013-01-22 14:03:00,35.4,0.4,30.03,North,9,2.7,3.1,22,0.00,,---,0.00,VWS V14.01,2013-01-22 21:03:00,
2013-01-22 14:05:00,34.9,-0.1,30.03,North,9,2.2,3.1,22,0.00,,---,0.00,VWS V14.01,2013-01-22 21:05:00,
2013-01-22 14:07:00,34.9,-0.1,30.03,North,9,0.0,3.1,22,0.00,,---,0.00,VWS V14.01,2013-01-22 21:07:00,
2013-01-22 14:08:00,34.9,-0.1,30.03,North,9,2.2,3.1,22,0.00,,---,0.00,VWS V14.01,2013-01-22 21:08:00,
2013-01-22 14:10:00,34.9,-0.1,30.03,North,9,2.7,3.1,22,0.00,,---,0.00,VWS V14.01,2013-01-22 21:10:00,
2013-01-22 14:11:00,34.9,-0.1,30.03,North,9,2.2,3.1,22,0.00,,---,0.00,VWS V14.01,2013-01-22 21:11:00,
2013-01-22 14:13:00,35.1,2.8,30.03,North,9,0.0,3.1,25,0.00,,---,0.00,VWS V14.01,2013-01-22 21:13:00,
2013-01-22 14:14:00,35.1,2.8,30.03,North,9,0.0,3.1,25,0.00,,---,0.00,VWS V14.01,2013-01-22 21:14:00,
2013-01-22 14:16:00,35.4,3.1,30.03,North,9,0.0,0.0,25,0.00,,---,0.00,VWS V14.01,2013-01-22 21:16:00,
2013-01-22 14:18:00,35.4,3.1,30.03,North,9,0.0,0.0,25,0.00,,---,0.00,VWS V14.01,2013-01-22 21:18:00,
2013-01-22 14:19:00,35.4,3.1,30.03,North,9,0.0,0.0,25,0.00,,---,0.00,VWS V14.01,2013-01-22 21:19:00,
2013-01-22 14:21:00,35.6,2.4,30.03,North,9,0.0,0.0,24,0.00,,---,0.00,VWS V14.01,2013-01-22 21:21:00,
2013-01-22 14:22:00,35.6,2.4,30.03,NNE,22,0.0,0.0,24,0.00,,---,0.00,VWS V14.01,2013-01-22 21:22:00,
2013-01-22 14:23:00,35.6,2.4,30.03,NNE,22,0.0,0.0,24,0.00,,---,0.00,VWS V14.01,2013-01-22 21:23:00,
2013-01-22 14:24:00,35.6,2.4,30.03,NNE,29,0.0,0.0,24,0.00,,---,0.00,VWS V14.01,2013-01-22 21:24:00,
2013-01-22 14:26:00,35.6,2.4,30.03,NNE,29,0.0,0.0,24,0.00,,---,0.00,VWS V14.01,2013-01-22 21:26:00,
2013-01-22 14:28:00,35.6,2.4,30.03,NNE,29,0.0,0.0,24,0.00,,---,0.00,VWS V14.01,2013-01-22 21:28:00,
2013-01-22 14:29:00,35.6,2.4,30.03,NNE,29,0.0,0.0,24,0.00,,---,0.00,VWS V14.01,2013-01-22 21:29:00,
2013-01-22 14:31:00,35.8,2.5,30.03,NNE,29,0.0,0.0,24,0.00,,---,0.00,VWS V14.01,2013-01-22 21:31:00,
2013-01-22 14:33:00,35.8,5.1,30.03,NNE,29,0.0,0.0,27,0.00,,---,0.00,VWS V14.01,2013-01-22 21:33:00,
2013-01-22 14:36:00,36.0,5.2,30.03,NNE,29,0.0,0.0,27,0.00,,---,0.00,VWS V14.01,2013-01-22 21:36:00,
2013-01-22 14:38:00,36.0,5.2,30.03,NNE,29,0.0,0.0,27,0.00,,---,0.00,VWS V14.01,2013-01-22 21:38:00,
2013-01-22 14:41:00,36.1,5.4,30.03,NNE,29,0.0,0.0,27,0.00,,---,0.00,VWS V14.01,2013-01-22 21:41:00,
2013-01-22 14:43:00,36.1,7.0,30.03,NNE,29,0.0,0.0,29,0.00,,---,0.00,VWS V14.01,2013-01-22 21:43:00,
2013-01-22 14:46:00,36.3,5.6,30.03,NNE,30,0.0,0.0,27,0.00,,---,0.00,VWS V14.01,2013-01-22 21:46:00,
2013-01-22 14:47:00,36.3,5.6,30.03,NNE,30,0.0,0.0,27,0.00,,---,0.00,VWS V14.01,2013-01-22 21:47:00,
2013-01-22 14:48:00,36.3,7.1,30.03,NNE,30,0.0,0.0,29,0.00,,---,0.00,VWS V14.01,2013-01-22 21:48:00,
2013-01-22 14:49:00,36.3,7.1,30.03,NNE,30,0.0,0.0,29,0.00,,---,0.00,VWS V14.01,2013-01-22 21:49:00,
2013-01-22 14:51:00,36.3,7.1,30.03,NNE,30,0.0,0.0,29,0.00,,---,0.00,VWS V14.01,2013-01-22 21:51:00,
2013-01-22 14:52:00,36.3,7.1,30.03,NNE,30,0.0,0.0,29,0.00,,---,0.00,VWS V14.01,2013-01-22 21:52:00,
2013-01-22 14:53:00,36.3,7.1,30.03,NNE,30,0.0,0.0,29,0.00,,---,0.00,VWS V14.01,2013-01-22 21:53:00,
2013-01-22 14:54:00,36.3,7.1,30.03,NNE,30,0.0,0.0,29,0.00,,---,0.00,VWS V14.01,2013-01-22 21:54:00,
2013-01-22 14:57:00,36.5,7.3,30.03,NNE,30,0.0,0.0,29,0.00,,---,0.00,VWS V14.01,2013-01-22 21:57:00,
2013-01-22 14:58:00,36.7,7.4,30.03,NNE,29,2.7,2.7,29,0.00,,---,0.00,VWS V14.01,2013-01-22 21:58:00,
2013-01-22 14:59:00,36.7,7.4,30.03,NNE,29,2.7,2.7,29,0.00,,---,0.00,VWS V14.01,2013-01-22 21:59:00,
2013-01-22 15:02:00,36.3,7.1,30.03,NNE,18,2.7,3.1,29,0.00,,---,0.00,VWS V14.01,2013-01-22 22:02:00,
2013-01-22 15:03:00,36.1,7.0,30.03,North,7,4.0,4.0,29,0.00,,---,0.00,VWS V14.01,2013-01-22 22:03:00,
2013-01-22 15:04:00,35.8,6.7,30.03,North,8,3.6,4.0,29,0.00,,---,0.00,VWS V14.01,2013-01-22 22:04:00,
2013-01-22 15:07:00,35.2,6.9,30.03,North,357,2.7,4.0,30,0.00,,---,0.00,VWS V14.01,2013-01-22 22:07:00,
2013-01-22 15:08:00,35.1,6.8,30.03,North,0,2.2,4.0,30,0.00,,---,0.00,VWS V14.01,2013-01-22 22:08:00,
2013-01-22 15:09:00,35.1,6.8,30.03,North,0,0.0,4.0,30,0.00,,---,0.00,VWS V14.01,2013-01-22 22:09:00,
2013-01-22 15:10:00,34.9,6.6,30.03,North,0,0.0,4.0,30,0.00,,---,0.00,VWS V14.01,2013-01-22 22:10:00,
2013-01-22 15:12:00,35.1,6.8,30.03,North,0,0.0,4.0,30,0.00,,---,0.00,VWS V14.01,2013-01-22 22:12:00,
2013-01-22 15:13:00,35.1,6.8,30.03,North,0,0.0,4.0,30,0.00,,---,0.00,VWS V14.01,2013-01-22 22:13:00,
2013-01-22 15:14:00,35.1,6.8,30.03,North,0,0.0,4.0,30,0.00,,---,0.00,VWS V14.01,2013-01-22 22:14:00,
2013-01-22 15:15:00,35.1,6.8,30.03,North,10,0.0,4.0,30,0.00,,---,0.00,VWS V14.01,2013-01-22 22:15:00,
2013-01-22 15:18:00,35.1,6.8,30.03,NNE,15,0.0,2.2,30,0.00,,---,0.00,VWS V14.01,2013-01-22 22:18:00,
2013-01-22 15:19:00,34.9,6.6,30.03,NNE,15,0.0,2.2,30,0.00,,---,0.00,VWS V14.01,2013-01-22 22:19:00,
2013-01-22 15:20:00,34.5,6.3,30.03,NNE,15,0.0,2.2,30,0.00,,---,0.00,VWS V14.01,2013-01-22 22:20:00,
2013-01-22 15:23:00,34.3,6.1,30.03,NE,38,0.0,3.1,30,0.00,,---,0.00,VWS V14.01,2013-01-22 22:23:00,
2013-01-22 15:24:00,34.2,6.0,30.03,NE,38,0.0,3.1,30,0.00,,---,0.00,VWS V14.01,2013-01-22 22:24:00,
2013-01-22 15:25:00,34.0,5.8,30.03,NE,38,0.0,3.1,30,0.00,,---,0.00,VWS V14.01,2013-01-22 22:25:00,
2013-01-22 15:28:00,33.6,6.2,30.03,NE,39,0.0,3.1,31,0.00,,---,0.00,VWS V14.01,2013-01-22 22:28:00,
2013-01-22 15:29:00,33.4,5.3,30.03,NE,38,2.7,3.1,30,0.00,,---,0.00,VWS V14.01,2013-01-22 22:29:00,
2013-01-22 15:30:00,33.3,5.2,30.03,NE,38,2.7,3.1,30,0.00,,---,0.00,VWS V14.01,2013-01-22 22:30:00,
2013-01-22 15:33:00,32.5,4.6,30.03,NE,38,0.0,2.7,30,0.00,,---,0.00,VWS V14.01,2013-01-22 22:33:00,
2013-01-22 15:34:00,32.4,4.4,30.03,NE,38,0.0,2.7,30,0.00,,---,0.00,VWS V14.01,2013-01-22 22:34:00,
2013-01-22 15:35:00,32.2,4.2,30.03,NE,38,2.7,2.7,30,0.00,,---,0.00,VWS V14.01,2013-01-22 22:35:00,
2013-01-22 15:38:00,31.5,3.6,30.03,NE,38,2.7,2.7,30,0.00,,---,0.00,VWS V14.01,2013-01-22 22:38:00,
2013-01-22 15:39:00,31.5,3.6,30.03,NE,38,2.7,2.7,30,0.00,,---,0.00,VWS V14.01,2013-01-22 22:39:00,
2013-01-22 15:40:00,31.3,3.5,30.03,NE,38,2.2,2.7,30,0.00,,---,0.00,VWS V14.01,2013-01-22 22:40:00,
2013-01-22 15:43:00,31.1,4.0,30.03,NE,38,3.1,3.1,31,0.00,,---,0.00,VWS V14.01,2013-01-22 22:43:00,
2013-01-22 15:44:00,31.1,4.0,30.03,NE,38,0.0,3.1,31,0.00,,---,0.00,VWS V14.01,2013-01-22 22:44:00,
2013-01-22 15:45:00,31.1,4.0,30.03,NE,38,0.0,3.1,31,0.00,,---,0.00,VWS V14.01,2013-01-22 22:45:00,
2013-01-22 15:48:00,31.1,4.0,30.03,NE,39,0.0,2.2,31,0.00,,---,0.00,VWS V14.01,2013-01-22 22:48:00,
2013-01-22 15:50:00,31.1,4.0,30.03,NE,39,0.0,2.2,31,0.00,,---,0.00,VWS V14.01,2013-01-22 22:50:00,
2013-01-22 15:53:00,31.1,4.7,30.03,NE,42,2.2,2.7,32,0.00,,---,0.00,VWS V14.01,2013-01-22 22:53:00,
2013-01-22 15:55:00,31.1,4.7,30.03,NE,42,0.0,2.7,32,0.00,,---,0.00,VWS V14.01,2013-01-22 22:55:00,
2013-01-22 15:58:00,30.9,5.2,30.03,NE,45,0.0,2.7,33,0.00,,---,0.00,VWS V14.01,2013-01-22 22:58:00,
2013-01-22 16:00:00,30.9,5.2,30.03,ESE,120,2.7,3.1,33,0.00,,---,0.00,VWS V14.01,2013-01-22 23:00:00,
2013-01-22 16:02:00,30.7,5.1,30.03,North,9,3.6,4.0,33,0.00,,---,0.00,VWS V14.01,2013-01-22 23:02:00,
2013-01-22 16:03:00,30.4,4.1,30.03,SE,124,3.1,4.0,32,0.00,,---,0.00,VWS V14.01,2013-01-22 23:03:00,
2013-01-22 16:05:00,30.2,3.9,30.03,SE,129,2.2,4.0,32,0.00,,---,0.00,VWS V14.01,2013-01-22 23:05:00,
2013-01-22 16:07:00,30.0,3.8,30.03,SE,129,2.7,4.0,32,0.00,,---,0.00,VWS V14.01,2013-01-22 23:07:00,
2013-01-22 16:09:00,29.8,3.6,30.03,SE,129,2.7,4.0,32,0.00,,---,0.00,VWS V14.01,2013-01-22 23:09:00,
2013-01-22 16:10:00,29.8,3.6,30.03,SE,129,2.2,4.0,32,0.00,,---,0.00,VWS V14.01,2013-01-22 23:10:00,
2013-01-22 16:12:00,29.7,4.1,30.03,North,0,0.0,4.0,33,0.00,,---,0.00,VWS V14.01,2013-01-22 23:12:00,
2013-01-22 16:14:00,29.5,3.9,30.03,SE,130,2.7,4.0,33,0.00,,---,0.00,VWS V14.01,2013-01-22 23:14:00,
2013-01-22 16:15:00,29.5,3.9,30.03,SSE,152,3.1,4.0,33,0.00,,---,0.00,VWS V14.01,2013-01-22 23:15:00,
2013-01-22 16:18:00,29.5,3.9,30.03,South,177,0.0,3.1,33,0.00,,---,0.00,VWS V14.01,2013-01-22 23:18:00,
2013-01-22 16:20:00,29.5,3.9,30.03,South,177,0.0,3.6,33,0.00,,---,0.00,VWS V14.01,2013-01-22 23:20:00,
2013-01-22 16:21:00,29.5,3.9,30.03,South,177,2.2,3.6,33,0.00,,---,0.00,VWS V14.01,2013-01-22 23:21:00,
2013-01-22 16:23:00,29.5,4.6,30.03,South,177,0.0,3.6,34,0.00,,---,0.00,VWS V14.01,2013-01-22 23:23:00,
2013-01-22 16:25:00,29.5,5.2,30.03,South,177,0.0,3.6,35,0.00,,---,0.00,VWS V14.01,2013-01-22 23:25:00,
2013-01-22 16:26:00,29.5,5.2,30.03,South,177,0.0,3.6,35,0.00,,---,0.00,VWS V14.01,2013-01-22 23:26:00,
2013-01-22 16:28:00,29.5,5.8,30.03,South,175,2.7,3.6,36,0.00,,---,0.00,VWS V14.01,2013-01-22 23:28:00,
2013-01-22 16:30:00,29.5,5.2,30.03,SE,140,0.0,0.0,35,0.00,,---,0.00,VWS V14.01,2013-01-22 23:30:00,
2013-01-22 16:31:00,29.5,5.2,30.03,SE,140,0.0,0.0,35,0.00,,---,0.00,VWS V14.01,2013-01-22 23:31:00,
2013-01-22 16:33:00,29.3,5.1,30.03,SE,141,0.0,0.0,35,0.00,,---,0.00,VWS V14.01,2013-01-22 23:33:00,
2013-01-22 16:35:00,29.3,5.1,30.03,SE,140,0.0,0.0,35,0.00,,---,0.00,VWS V14.01,2013-01-22 23:35:00,
2013-01-22 16:37:00,29.1,4.9,30.03,SE,140,0.0,0.0,35,0.00,,---,0.00,VWS V14.01,2013-01-22 23:37:00,
2013-01-22 16:39:00,29.1,4.9,30.03,SE,140,0.0,0.0,35,0.00,,---,0.00,VWS V14.01,2013-01-22 23:39:00,
2013-01-22 16:40:00,28.9,4.7,30.03,SE,140,2.7,2.7,35,0.00,,---,0.00,VWS V14.01,2013-01-22 23:40:00,
2013-01-22 16:41:00,28.9,4.7,30.03,SE,140,2.2,2.7,35,0.00,,---,0.00,VWS V14.01,2013-01-22 23:41:00,
2013-01-22 16:42:00,28.9,4.7,30.03,SE,140,0.0,2.7,35,0.00,,---,0.00,VWS V14.01,2013-01-22 23:42:00,
2013-01-22 16:45:00,28.9,5.3,30.00,SE,140,0.0,2.7,36,0.00,,---,0.00,VWS V14.01,2013-01-22 23:45:00,
2013-01-22 16:47:00,28.8,5.2,30.00,SE,140,0.0,0.0,36,0.00,,---,0.00,VWS V14.01,2013-01-22 23:47:00,
2013-01-22 16:50:00,28.6,6.2,30.00,SE,140,0.0,2.2,38,0.00,,---,0.00,VWS V14.01,2013-01-22 23:50:00,
2013-01-22 16:52:00,28.6,6.8,30.00,SE,140,0.0,2.2,39,0.00,,---,0.00,VWS V14.01,2013-01-22 23:52:00,
2013-01-22 16:55:00,28.2,6.4,30.00,SE,140,0.0,2.2,39,0.00,,---,0.00,VWS V14.01,2013-01-22 23:55:00,
2013-01-22 16:56:00,28.2,6.4,30.00,SE,140,0.0,2.2,39,0.00,,---,0.00,VWS V14.01,2013-01-22 23:56:00,
2013-01-22 16:57:00,28.2,6.4,30.00,SE,140,0.0,2.2,39,0.00,,---,0.00,VWS V14.01,2013-01-22 23:57:00,
2013-01-22 17:00:00,28.0,6.3,30.00,SE,140,0.0,2.2,39,0.00,,---,0.00,VWS V14.01,2013-01-23 00:00:00,
2013-01-22 17:01:00,27.9,6.1,30.00,SE,140,0.0,0.0,39,0.00,,---,0.00,VWS V14.01,2013-01-23 00:01:00,
2013-01-22 17:02:00,27.9,6.7,30.00,SE,140,0.0,0.0,40,0.00,,---,0.00,VWS V14.01,2013-01-23 00:02:00,
2013-01-22 17:05:00,27.9,6.7,30.00,SE,140,0.0,0.0,40,0.00,,---,0.00,VWS V14.01,2013-01-23 00:05:00,
2013-01-22 17:07:00,27.7,6.0,30.00,SE,140,0.0,0.0,39,0.00,,---,0.00,VWS V14.01,2013-01-23 00:07:00,
2013-01-22 17:11:00,27.7,6.0,30.00,SE,140,2.7,2.7,39,0.00,,---,0.00,VWS V14.01,2013-01-23 00:11:00,
2013-01-22 17:12:00,27.7,6.0,30.00,SE,140,0.0,2.7,39,0.00,,---,0.00,VWS V14.01,2013-01-23 00:12:00,
2013-01-22 17:16:00,27.7,6.0,30.00,SE,140,0.0,0.0,39,0.00,,---,0.00,VWS V14.01,2013-01-23 00:16:00,
2013-01-22 17:17:00,27.7,6.0,30.00,SE,140,0.0,0.0,39,0.00,,---,0.00,VWS V14.01,2013-01-23 00:17:00,
2013-01-22 17:21:00,27.7,6.0,30.00,East,97,2.2,3.1,39,0.00,,---,0.00,VWS V14.01,2013-01-23 00:21:00,
2013-01-22 17:22:00,27.7,6.0,30.00,East,97,0.0,3.1,39,0.00,,---,0.00,VWS V14.01,2013-01-23 00:22:00,
2013-01-22 17:23:00,27.7,6.0,30.00,East,97,0.0,3.1,39,0.00,,---,0.00,VWS V14.01,2013-01-23 00:23:00,
2013-01-22 17:27:00,27.9,6.1,30.03,East,97,0.0,3.1,39,0.00,,---,0.00,VWS V14.01,2013-01-23 00:27:00,
2013-01-22 17:28:00,27.9,5.6,30.03,East,97,0.0,3.1,38,0.00,,---,0.00,VWS V14.01,2013-01-23 00:28:00,
2013-01-22 17:32:00,27.7,4.8,30.03,East,97,0.0,0.0,37,0.00,,---,0.00,VWS V14.01,2013-01-23 00:32:00,
2013-01-22 17:33:00,27.7,5.4,30.03,East,97,0.0,0.0,38,0.00,,---,0.00,VWS V14.01,2013-01-23 00:33:00,
2013-01-22 17:34:00,27.5,5.2,30.03,East,97,0.0,0.0,38,0.00,,---,0.00,VWS V14.01,2013-01-23 00:34:00,
2013-01-22 17:37:00,27.1,3.7,30.03,East,97,0.0,0.0,36,0.00,,---,0.00,VWS V14.01,2013-01-23 00:37:00,
2013-01-22 17:38:00,27.1,3.7,30.03,East,97,0.0,0.0,36,0.00,,---,0.00,VWS V14.01,2013-01-23 00:38:00,
2013-01-22 17:39:00,27.0,3.6,30.03,East,97,0.0,0.0,36,0.00,,---,0.00,VWS V14.01,2013-01-23 00:39:00,
2013-01-22 17:43:00,27.0,3.6,30.03,East,97,0.0,0.0,36,0.00,,---,0.00,VWS V14.01,2013-01-23 00:43:00,
2013-01-22 17:44:00,26.8,3.4,30.03,East,97,0.0,0.0,36,0.00,,---,0.00,VWS V14.01,2013-01-23 00:44:00,
2013-01-22 17:48:00,26.6,3.3,30.03,East,97,0.0,0.0,36,0.00,,---,0.00,VWS V14.01,2013-01-23 00:48:00,
2013-01-22 17:49:00,26.6,3.3,30.03,East,97,0.0,0.0,36,0.00,,---,0.00,VWS V14.01,2013-01-23 00:49:00,
2013-01-22 17:53:00,26.6,3.3,30.03,East,97,0.0,0.0,36,0.00,,---,0.00,VWS V14.01,2013-01-23 00:53:00,
2013-01-22 17:54:00,26.6,3.3,30.03,East,97,0.0,0.0,36,0.00,,---,0.00,VWS V14.01,2013-01-23 00:54:00,
2013-01-22 17:58:00,26.6,4.4,30.03,ESE,111,0.0,0.0,38,0.00,,---,0.00,VWS V14.01,2013-01-23 00:58:00,
2013-01-22 17:59:00,26.6,4.4,30.03,ESE,123,2.2,2.2,38,0.00,,---,0.00,VWS V14.01,2013-01-23 00:59:00,
2013-01-22 18:03:00,26.8,4.6,30.03,ESE,123,0.0,0.0,38,0.00,,---,0.00,VWS V14.01,2013-01-23 01:03:00,
2013-01-22 18:04:00,26.8,4.6,30.03,ESE,123,0.0,0.0,38,0.00,,---,0.00,VWS V14.01,2013-01-23 01:04:00,
2013-01-22 18:09:00,26.8,4.6,30.03,SSE,156,2.7,2.7,38,0.00,,---,0.00,VWS V14.01,2013-01-23 01:09:00,
2013-01-22 18:10:00,27.0,4.8,30.03,SSE,168,0.0,2.7,38,0.00,,---,0.00,VWS V14.01,2013-01-23 01:10:00,
2013-01-22 18:14:00,27.0,4.8,30.00,South,172,2.2,2.7,38,0.00,,---,0.00,VWS V14.01,2013-01-23 01:14:00,
2013-01-22 18:15:00,27.0,4.2,30.00,South,172,2.2,2.2,37,0.00,,---,0.00,VWS V14.01,2013-01-23 01:15:00,
2013-01-22 18:19:00,27.5,5.2,30.00,South,189,0.0,4.0,38,0.00,,---,0.00,VWS V14.01,2013-01-23 01:19:00,
2013-01-22 18:21:00,27.9,5.0,30.00,South,189,3.1,4.0,37,0.00,,---,0.00,VWS V14.01,2013-01-23 01:21:00,
2013-01-22 18:24:00,28.4,4.9,30.00,South,189,2.7,4.0,36,0.00,,---,0.00,VWS V14.01,2013-01-23 01:24:00,
2013-01-22 18:25:00,28.4,4.9,30.00,South,189,2.2,4.0,36,0.00,,---,0.00,VWS V14.01,2013-01-23 01:25:00,
2013-01-22 18:26:00,28.6,4.4,30.00,South,189,0.0,4.0,35,0.00,,---,0.00,VWS V14.01,2013-01-23 01:26:00,
2013-01-22 18:29:00,29.1,4.9,30.03,South,189,0.0,4.0,35,0.00,,---,0.00,VWS V14.01,2013-01-23 01:29:00,
2013-01-22 18:30:00,29.1,4.9,30.03,South,189,0.0,4.0,35,0.00,,---,0.00,VWS V14.01,2013-01-23 01:30:00,
2013-01-22 18:33:00,29.1,4.3,30.03,South,189,0.0,0.0,34,0.00,,---,0.00,VWS V14.01,2013-01-23 01:33:00,
2013-01-22 18:35:00,28.9,4.1,30.03,South,189,2.2,2.2,34,0.00,,---,0.00,VWS V14.01,2013-01-23 01:35:00,
2013-01-22 18:38:00,28.9,4.1,30.03,South,189,0.0,2.2,34,0.00,,---,0.00,VWS V14.01,2013-01-23 01:38:00,
2013-01-22 18:40:00,28.9,4.1,30.03,South,189,0.0,2.2,34,0.00,,---,0.00,VWS V14.01,2013-01-23 01:40:00,
2013-01-22 18:43:00,28.8,3.3,30.03,South,189,0.0,2.2,33,0.00,,---,0.00,VWS V14.01,2013-01-23 01:43:00,
2013-01-22 18:45:00,28.9,3.5,30.03,South,189,0.0,2.2,33,0.00,,---,0.00,VWS V14.01,2013-01-23 01:45:00,
2013-01-22 18:48:00,28.9,2.8,30.03,South,189,0.0,0.0,32,0.00,,---,0.00,VWS V14.01,2013-01-23 01:48:00,
2013-01-22 18:50:00,28.9,2.8,30.03,South,189,0.0,0.0,32,0.00,,---,0.00,VWS V14.01,2013-01-23 01:50:00,
2013-01-22 18:53:00,29.1,3.0,30.03,South,189,0.0,0.0,32,0.00,,---,0.00,VWS V14.01,2013-01-23 01:53:00,
2013-01-22 18:55:00,28.9,2.8,30.03,South,189,0.0,0.0,32,0.00,,---,0.00,VWS V14.01,2013-01-23 01:55:00,
2013-01-22 18:58:00,28.9,3.5,30.03,South,189,0.0,2.2,33,0.00,,---,0.00,VWS V14.01,2013-01-23 01:58:00,
2013-01-22 19:00:00,28.8,3.3,30.03,South,189,0.0,0.0,33,0.00,,---,0.00,VWS V14.01,2013-01-23 02:00:00,
2013-01-22 19:01:00,28.8,3.3,30.03,South,189,0.0,0.0,33,0.00,,---,0.00,VWS V14.01,2013-01-23 02:01:00,
2013-01-22 19:04:00,28.6,3.1,30.03,South,189,2.7,3.1,33,0.00,,---,0.00,VWS V14.01,2013-01-23 02:04:00,
2013-01-22 19:05:00,28.6,3.1,30.03,South,189,2.2,3.1,33,0.00,,---,0.00,VWS V14.01,2013-01-23 02:05:00,
2013-01-22 19:06:00,28.4,3.0,30.03,South,189,2.2,3.1,33,0.00,,---,0.00,VWS V14.01,2013-01-23 02:06:00,
2013-01-22 19:09:00,28.6,3.1,30.03,South,189,2.7,3.1,33,0.00,,---,0.00,VWS V14.01,2013-01-23 02:09:00,
2013-01-22 19:11:00,28.6,3.1,30.03,South,189,3.1,3.1,33,0.00,,---,0.00,VWS V14.01,2013-01-23 02:11:00,
2013-01-22 19:14:00,28.6,3.1,30.00,South,176,2.7,3.6,33,0.00,,---,0.00,VWS V14.01,2013-01-23 02:14:00,
2013-01-22 19:16:00,28.8,3.3,30.00,South,186,2.7,3.1,33,0.00,,---,0.00,VWS V14.01,2013-01-23 02:16:00,
2013-01-22 19:17:00,28.8,3.3,30.00,South,186,2.7,3.1,33,0.00,,---,0.00,VWS V14.01,2013-01-23 02:17:00,
2013-01-22 19:19:00,28.9,3.5,30.00,South,185,3.1,3.6,33,0.00,,---,0.00,VWS V14.01,2013-01-23 02:19:00,
2013-01-22 19:21:00,29.1,3.6,30.00,South,185,0.0,3.6,33,0.00,,---,0.00,VWS V14.01,2013-01-23 02:21:00,
2013-01-22 19:22:00,29.1,3.6,30.00,South,185,0.0,3.6,33,0.00,,---,0.00,VWS V14.01,2013-01-23 02:22:00,
2013-01-22 19:24:00,29.1,3.6,30.00,South,185,0.0,3.6,33,0.00,,---,0.00,VWS V14.01,2013-01-23 02:24:00,
2013-01-22 19:26:00,29.1,3.0,30.00,South,185,2.2,3.6,32,0.00,,---,0.00,VWS V14.01,2013-01-23 02:26:00,
2013-01-22 19:27:00,29.1,3.0,30.00,South,185,0.0,3.6,32,0.00,,---,0.00,VWS V14.01,2013-01-23 02:27:00,
2013-01-22 19:28:00,29.3,3.1,30.00,South,185,0.0,3.6,32,0.00,,---,0.00,VWS V14.01,2013-01-23 02:28:00,
2013-01-22 19:30:00,29.3,3.8,30.00,South,185,2.2,2.2,33,0.00,,---,0.00,VWS V14.01,2013-01-23 02:30:00,
2013-01-22 19:32:00,29.1,3.6,30.00,South,185,0.0,2.2,33,0.00,,---,0.00,VWS V14.01,2013-01-23 02:32:00,
2013-01-22 19:33:00,29.1,3.0,30.00,South,185,0.0,2.2,32,0.00,,---,0.00,VWS V14.01,2013-01-23 02:33:00,
2013-01-22 19:35:00,28.9,2.8,30.00,South,185,0.0,2.2,32,0.00,,---,0.00,VWS V14.01,2013-01-23 02:35:00,
2013-01-22 19:37:00,28.8,2.6,30.00,South,185,0.0,2.2,32,0.00,,---,0.00,VWS V14.01,2013-01-23 02:37:00,
2013-01-22 19:38:00,28.8,2.6,30.00,South,185,0.0,2.2,32,0.00,,---,0.00,VWS V14.01,2013-01-23 02:38:00,
2013-01-22 19:40:00,28.8,2.6,30.00,South,185,0.0,2.7,32,0.00,,---,0.00,VWS V14.01,2013-01-23 02:40:00,
2013-01-22 19:43:00,28.8,2.6,30.00,South,185,0.0,2.7,32,0.00,,---,0.00,VWS V14.01,2013-01-23 02:43:00,
2013-01-22 19:45:00,28.6,2.5,30.00,South,185,0.0,0.0,32,0.00,,---,0.00,VWS V14.01,2013-01-23 02:45:00,
2013-01-22 19:48:00,28.6,2.5,30.00,South,185,0.0,0.0,32,0.00,,---,0.00,VWS V14.01,2013-01-23 02:48:00,
2013-01-22 19:50:00,28.4,3.0,30.00,South,185,0.0,0.0,33,0.00,,---,0.00,VWS V14.01,2013-01-23 02:50:00,
2013-01-22 19:53:00,28.2,2.8,30.00,South,185,0.0,0.0,33,0.00,,---,0.00,VWS V14.01,2013-01-23 02:53:00,
2013-01-22 19:54:00,28.0,2.7,30.00,South,185,0.0,0.0,33,0.00,,---,0.00,VWS V14.01,2013-01-23 02:54:00,
2013-01-22 19:55:00,27.9,2.5,30.00,South,185,0.0,0.0,33,0.00,,---,0.00,VWS V14.01,2013-01-23 02:55:00,
2013-01-22 19:58:00,27.7,2.3,30.00,South,185,0.0,0.0,33,0.00,,---,0.00,VWS V14.01,2013-01-23 02:58:00,
2013-01-22 19:59:00,27.7,2.3,30.00,South,185,0.0,0.0,33,0.00,,---,0.00,VWS V14.01,2013-01-23 02:59:00,
2013-01-22 20:00:00,27.5,2.2,30.00,South,185,0.0,0.0,33,0.00,,---,0.00,VWS V14.01,2013-01-23 03:00:00,
2013-01-22 20:03:00,27.3,2.0,30.00,South,185,0.0,0.0,33,0.00,,---,0.00,VWS V14.01,2013-01-23 03:03:00,
2013-01-22 20:04:00,27.3,2.0,30.00,South,185,0.0,0.0,33,0.00,,---,0.00,VWS V14.01,2013-01-23 03:04:00,
2013-01-22 20:05:00,27.1,1.9,30.00,South,185,0.0,0.0,33,0.00,,---,0.00,VWS V14.01,2013-01-23 03:05:00,
2013-01-22 20:08:00,27.1,1.9,30.00,South,185,0.0,0.0,33,0.00,,---,0.00,VWS V14.01,2013-01-23 03:08:00,
2013-01-22 20:09:00,27.1,1.9,30.00,South,185,0.0,0.0,33,0.00,,---,0.00,VWS V14.01,2013-01-23 03:09:00,
2013-01-22 20:10:00,27.1,1.9,30.00,South,185,0.0,0.0,33,0.00,,---,0.00,VWS V14.01,2013-01-23 03:10:00,
2013-01-22 20:13:00,27.3,2.0,30.00,South,185,0.0,0.0,33,0.00,,---,0.00,VWS V14.01,2013-01-23 03:13:00,
2013-01-22 20:14:00,27.3,2.0,30.00,South,185,0.0,0.0,33,0.00,,---,0.00,VWS V14.01,2013-01-23 03:14:00,
2013-01-22 20:15:00,27.3,2.7,30.00,South,185,0.0,0.0,34,0.00,,---,0.00,VWS V14.01,2013-01-23 03:15:00,
2013-01-22 20:18:00,27.1,2.5,30.00,South,186,0.0,0.0,34,0.00,,---,0.00,VWS V14.01,2013-01-23 03:18:00,
2013-01-22 20:19:00,27.1,2.5,30.00,South,186,0.0,0.0,34,0.00,,---,0.00,VWS V14.01,2013-01-23 03:19:00,
2013-01-22 20:21:00,27.1,2.5,30.00,South,185,0.0,0.0,34,0.00,,---,0.00,VWS V14.01,2013-01-23 03:21:00,
2013-01-22 20:24:00,27.0,3.0,30.00,South,185,2.2,3.1,35,0.00,,---,0.00,VWS V14.01,2013-01-23 03:24:00,
2013-01-22 20:26:00,27.0,3.0,30.00,South,186,0.0,3.1,35,0.00,,---,0.00,VWS V14.01,2013-01-23 03:26:00,
2013-01-22 20:29:00,27.0,3.0,30.00,South,186,0.0,3.1,35,0.00,,---,0.00,VWS V14.01,2013-01-23 03:29:00,
2013-01-22 20:30:00,27.0,3.0,30.00,South,186,0.0,3.1,35,0.00,,---,0.00,VWS V14.01,2013-01-23 03:30:00,
2013-01-22 20:32:00,27.0,3.0,30.00,South,186,0.0,0.0,35,0.00,,---,0.00,VWS V14.01,2013-01-23 03:32:00,
2013-01-22 20:34:00,27.0,3.0,30.00,South,186,0.0,0.0,35,0.00,,---,0.00,VWS V14.01,2013-01-23 03:34:00,
2013-01-22 20:35:00,26.8,3.4,30.00,South,187,0.0,0.0,36,0.00,,---,0.00,VWS V14.01,2013-01-23 03:35:00,
2013-01-22 20:37:00,26.8,4.0,30.00,South,185,0.0,0.0,37,0.00,,---,0.00,VWS V14.01,2013-01-23 03:37:00,
2013-01-22 20:39:00,26.6,3.3,30.00,South,186,0.0,0.0,36,0.00,,---,0.00,VWS V14.01,2013-01-23 03:39:00,
2013-01-22 20:40:00,26.6,3.3,30.00,South,186,0.0,0.0,36,0.00,,---,0.00,VWS V14.01,2013-01-23 03:40:00,
2013-01-22 20:42:00,26.4,3.1,30.00,South,186,0.0,0.0,36,0.00,,---,0.00,VWS V14.01,2013-01-23 03:42:00,
2013-01-22 20:44:00,26.4,3.1,30.00,South,186,0.0,0.0,36,0.00,,---,0.00,VWS V14.01,2013-01-23 03:44:00,
2013-01-22 20:45:00,26.4,3.1,30.00,South,186,0.0,0.0,36,0.00,,---,0.00,VWS V14.01,2013-01-23 03:45:00,
2013-01-22 20:47:00,26.4,3.1,30.00,South,186,0.0,0.0,36,0.00,,---,0.00,VWS V14.01,2013-01-23 03:47:00,
2013-01-22 20:49:00,26.6,3.3,30.00,South,186,0.0,0.0,36,0.00,,---,0.00,VWS V14.01,2013-01-23 03:49:00,
2013-01-22 20:50:00,26.6,3.3,30.00,South,186,0.0,0.0,36,0.00,,---,0.00,VWS V14.01,2013-01-23 03:50:00,
2013-01-22 20:51:00,26.6,3.3,30.00,South,186,0.0,0.0,36,0.00,,---,0.00,VWS V14.01,2013-01-23 03:51:00,
2013-01-22 20:53:00,26.6,2.7,30.00,South,186,0.0,0.0,35,0.00,,---,0.00,VWS V14.01,2013-01-23 03:53:00,
2013-01-22 20:54:00,26.6,3.3,30.00,South,186,0.0,0.0,36,0.00,,---,0.00,VWS V14.01,2013-01-23 03:54:00,
2013-01-22 20:55:00,26.6,3.3,30.00,South,186,0.0,0.0,36,0.00,,---,0.00,VWS V14.01,2013-01-23 03:55:00,
2013-01-22 20:56:00,26.6,3.3,30.00,South,186,0.0,0.0,36,0.00,,---,0.00,VWS V14.01,2013-01-23 03:56:00,
2013-01-22 20:58:00,26.6,3.3,30.00,South,185,0.0,0.0,36,0.00,,---,0.00,VWS V14.01,2013-01-23 03:58:00,
2013-01-22 20:59:00,26.6,3.3,30.00,South,186,0.0,0.0,36,0.00,,---,0.00,VWS V14.01,2013-01-23 03:59:00,
2013-01-22 21:00:00,26.6,2.7,30.00,South,186,0.0,0.0,35,0.00,,---,0.00,VWS V14.01,2013-01-23 04:00:00,
2013-01-22 21:01:00,26.6,2.7,30.00,South,186,0.0,0.0,35,0.00,,---,0.00,VWS V14.01,2013-01-23 04:01:00,
2013-01-22 21:03:00,26.6,2.7,30.00,South,186,0.0,0.0,35,0.00,,---,0.00,VWS V14.01,2013-01-23 04:03:00,
2013-01-22 21:04:00,26.6,2.7,30.00,South,186,0.0,0.0,35,0.00,,---,0.00,VWS V14.01,2013-01-23 04:04:00,
2013-01-22 21:06:00,26.6,2.7,30.00,South,186,0.0,0.0,35,0.00,,---,0.00,VWS V14.01,2013-01-23 04:06:00,
2013-01-22 21:08:00,26.6,2.7,30.00,South,186,0.0,0.0,35,0.00,,---,0.00,VWS V14.01,2013-01-23 04:08:00,
2013-01-22 21:09:00,26.8,2.8,30.00,South,186,0.0,0.0,35,0.00,,---,0.00,VWS V14.01,2013-01-23 04:09:00,
2013-01-22 21:11:00,26.8,2.8,30.00,South,186,0.0,0.0,35,0.00,,---,0.00,VWS V14.01,2013-01-23 04:11:00,
2013-01-22 21:12:00,26.8,2.8,30.00,South,186,0.0,0.0,35,0.00,,---,0.00,VWS V14.01,2013-01-23 04:12:00,
2013-01-22 21:13:00,27.0,3.0,30.00,South,186,0.0,0.0,35,0.00,,---,0.00,VWS V14.01,2013-01-23 04:13:00,
2013-01-22 21:15:00,27.0,3.0,30.00,South,186,0.0,0.0,35,0.00,,---,0.00,VWS V14.01,2013-01-23 04:15:00,
2013-01-22 21:16:00,27.1,3.1,30.00,South,186,0.0,0.0,35,0.00,,---,0.00,VWS V14.01,2013-01-23 04:16:00,
2013-01-22 21:17:00,27.1,2.5,30.00,South,186,0.0,0.0,34,0.00,,---,0.00,VWS V14.01,2013-01-23 04:17:00,
2013-01-22 21:18:00,27.1,2.5,30.00,South,186,0.0,0.0,34,0.00,,---,0.00,VWS V14.01,2013-01-23 04:18:00,
2013-01-22 21:20:00,27.1,3.1,30.00,South,186,0.0,0.0,35,0.00,,---,0.00,VWS V14.01,2013-01-23 04:20:00,
2013-01-22 21:22:00,27.0,3.0,30.00,South,186,0.0,0.0,35,0.00,,---,0.00,VWS V14.01,2013-01-23 04:22:00,
2013-01-22 21:23:00,27.0,3.0,30.00,South,186,0.0,0.0,35,0.00,,---,0.00,VWS V14.01,2013-01-23 04:23:00,
2013-01-22 21:25:00,27.0,3.0,30.00,South,186,0.0,0.0,35,0.00,,---,0.00,VWS V14.01,2013-01-23 04:25:00,
2013-01-22 21:27:00,27.0,3.0,30.00,South,186,0.0,2.2,35,0.00,,---,0.00,VWS V14.01,2013-01-23 04:27:00,
2013-01-22 21:28:00,27.0,3.0,30.00,South,186,0.0,2.2,35,0.00,,---,0.00,VWS V14.01,2013-01-23 04:28:00,
2013-01-22 21:30:00,27.0,3.0,30.00,South,186,3.1,3.1,35,0.00,,---,0.00,VWS V14.01,2013-01-23 04:30:00,
2013-01-22 21:32:00,27.0,3.0,30.00,South,186,2.7,3.1,35,0.00,,---,0.00,VWS V14.01,2013-01-23 04:32:00,
2013-01-22 21:33:00,27.1,3.1,30.00,South,186,2.7,3.1,35,0.00,,---,0.00,VWS V14.01,2013-01-23 04:33:00,
2013-01-22 21:35:00,27.3,2.7,30.00,South,186,2.2,3.1,34,0.00,,---,0.00,VWS V14.01,2013-01-23 04:35:00,
2013-01-22 21:38:00,27.5,2.8,30.00,South,191,3.1,3.1,34,0.00,,---,0.00,VWS V14.01,2013-01-23 04:38:00,
2013-01-22 21:40:00,27.7,3.0,30.00,South,191,2.7,3.6,34,0.00,,---,0.00,VWS V14.01,2013-01-23 04:40:00,
2013-01-22 21:43:00,27.9,3.2,30.00,South,187,3.1,3.6,34,0.00,,---,0.00,VWS V14.01,2013-01-23 04:43:00,
2013-01-22 21:45:00,28.0,3.3,30.00,South,189,0.0,0.0,34,0.00,,---,0.00,VWS V14.01,2013-01-23 04:45:00,
2013-01-22 21:48:00,28.0,3.3,30.00,South,189,0.0,0.0,34,0.00,,---,0.00,VWS V14.01,2013-01-23 04:48:00,
2013-01-22 21:49:00,28.0,3.3,30.00,South,189,0.0,0.0,34,0.00,,---,0.00,VWS V14.01,2013-01-23 04:49:00,
2013-01-22 21:50:00,27.9,3.2,30.00,South,189,0.0,2.7,34,0.00,,---,0.00,VWS V14.01,2013-01-23 04:50:00,
2013-01-22 21:53:00,27.7,3.0,30.00,South,189,0.0,2.7,34,0.00,,---,0.00,VWS V14.01,2013-01-23 04:53:00,
2013-01-22 21:54:00,27.7,3.0,30.00,South,189,0.0,2.7,34,0.00,,---,0.00,VWS V14.01,2013-01-23 04:54:00,
2013-01-22 21:56:00,27.5,2.8,30.00,South,189,0.0,2.7,34,0.00,,---,0.00,VWS V14.01,2013-01-23 04:56:00,
2013-01-22 21:59:00,27.5,2.8,30.00,South,189,2.2,2.7,34,0.00,,---,0.00,VWS V14.01,2013-01-23 04:59:00,
2013-01-22 22:00:00,27.3,3.3,30.00,South,189,0.0,2.7,35,0.00,,---,0.00,VWS V14.01,2013-01-23 05:00:00,
2013-01-22 22:02:00,27.1,2.5,30.00,South,189,0.0,0.0,34,0.00,,---,0.00,VWS V14.01,2013-01-23 05:02:00,
2013-01-22 22:03:00,27.1,2.5,30.00,South,189,0.0,0.0,34,0.00,,---,0.00,VWS V14.01,2013-01-23 05:03:00,
2013-01-22 22:05:00,27.1,2.5,30.00,South,189,0.0,0.0,34,0.00,,---,0.00,VWS V14.01,2013-01-23 05:05:00,
2013-01-22 22:07:00,27.0,2.3,30.00,South,189,0.0,0.0,34,0.00,,---,0.00,VWS V14.01,2013-01-23 05:07:00,
2013-01-22 22:08:00,27.0,2.3,30.00,South,189,0.0,0.0,34,0.00,,---,0.00,VWS V14.01,2013-01-23 05:08:00,
2013-01-22 22:10:00,27.1,2.5,30.00,South,189,2.7,2.7,34,0.00,,---,0.00,VWS V14.01,2013-01-23 05:10:00,
2013-01-22 22:13:00,27.5,2.8,30.00,South,189,2.7,3.1,34,0.00,,---,0.00,VWS V14.01,2013-01-23 05:13:00,
2013-01-22 22:14:00,27.5,2.8,30.00,South,189,2.7,3.1,34,0.00,,---,0.00,VWS V14.01,2013-01-23 05:14:00,
2013-01-22 22:15:00,27.7,3.0,30.00,South,189,3.1,3.1,34,0.00,,---,0.00,VWS V14.01,2013-01-23 05:15:00,
2013-01-22 22:18:00,27.9,3.2,30.00,South,191,2.7,3.6,34,0.00,,---,0.00,VWS V14.01,2013-01-23 05:18:00,
2013-01-22 22:19:00,28.0,3.3,30.00,SSW,194,3.1,3.6,34,0.00,,---,0.00,VWS V14.01,2013-01-23 05:19:00,
2013-01-22 22:21:00,28.2,3.5,30.00,SSW,195,3.6,4.0,34,0.00,,---,0.00,VWS V14.01,2013-01-23 05:21:00,
2013-01-22 22:23:00,28.6,3.1,30.00,SSW,199,3.6,4.9,33,0.00,,---,0.00,VWS V14.01,2013-01-23 05:23:00,
2013-01-22 22:24:00,28.6,3.1,30.00,SSW,200,4.0,4.9,33,0.00,,---,0.00,VWS V14.01,2013-01-23 05:24:00,
2013-01-22 22:26:00,28.8,3.3,30.00,SSW,198,2.7,5.4,33,0.00,,---,0.00,VWS V14.01,2013-01-23 05:26:00,
2013-01-22 22:28:00,28.9,3.5,30.00,SSW,199,2.7,5.4,33,0.00,,---,0.00,VWS V14.01,2013-01-23 05:28:00,
2013-01-22 22:29:00,29.1,3.6,30.00,South,191,0.0,5.4,33,0.00,,---,0.00,VWS V14.01,2013-01-23 05:29:00,
2013-01-22 22:30:00,29.1,3.6,30.00,South,191,2.2,5.4,33,0.00,,---,0.00,VWS V14.01,2013-01-23 05:30:00,
2013-01-22 22:31:00,29.1,3.6,30.00,SSW,192,2.2,2.7,33,0.00,,---,0.00,VWS V14.01,2013-01-23 05:31:00,
2013-01-22 22:34:00,29.1,3.6,30.00,SSW,197,2.7,2.7,33,0.00,,---,0.00,VWS V14.01,2013-01-23 05:34:00,
2013-01-22 22:35:00,28.9,3.5,30.00,SSW,199,3.1,3.1,33,0.00,,---,0.00,VWS V14.01,2013-01-23 05:35:00,
2013-01-22 22:36:00,28.9,3.5,30.00,SSW,199,2.2,3.1,33,0.00,,---,0.00,VWS V14.01,2013-01-23 05:36:00,
2013-01-22 22:39:00,28.8,3.3,30.00,SSW,199,0.0,3.1,33,0.00,,---,0.00,VWS V14.01,2013-01-23 05:39:00,
2013-01-22 22:40:00,28.8,3.3,30.00,SSW,199,0.0,3.1,33,0.00,,---,0.00,VWS V14.01,2013-01-23 05:40:00,
2013-01-22 22:42:00,28.6,3.1,30.00,SSW,199,0.0,3.1,33,0.00,,---,0.00,VWS V14.01,2013-01-23 05:42:00,
2013-01-22 22:45:00,28.4,3.6,30.00,SSW,199,0.0,3.1,34,0.00,,---,0.00,VWS V14.01,2013-01-23 05:45:00,
2013-01-22 22:47:00,27.9,3.8,30.00,SSW,199,0.0,0.0,35,0.00,,---,0.00,VWS V14.01,2013-01-23 05:47:00,
2013-01-22 22:50:00,27.7,3.6,30.00,SSW,199,0.0,0.0,35,0.00,,---,0.00,VWS V14.01,2013-01-23 05:50:00,
2013-01-22 22:51:00,27.5,3.5,30.00,SSW,199,0.0,0.0,35,0.00,,---,0.00,VWS V14.01,2013-01-23 05:51:00,
2013-01-22 22:52:00,27.5,3.5,30.00,SSW,199,0.0,0.0,35,0.00,,---,0.00,VWS V14.01,2013-01-23 05:52:00,
2013-01-22 22:55:00,27.3,2.7,30.00,SSW,199,0.0,0.0,34,0.00,,---,0.00,VWS V14.01,2013-01-23 05:55:00,
2013-01-22 22:56:00,27.3,2.7,30.00,SSW,199,0.0,0.0,34,0.00,,---,0.00,VWS V14.01,2013-01-23 05:56:00,
2013-01-22 22:58:00,27.3,2.7,30.00,SSW,199,0.0,0.0,34,0.00,,---,0.00,VWS V14.01,2013-01-23 05:58:00,
2013-01-22 23:00:00,27.5,3.5,30.00,SSW,199,0.0,0.0,35,0.00,,---,0.00,VWS V14.01,2013-01-23 06:00:00,
2013-01-22 23:01:00,27.3,3.3,30.00,SSW,199,3.1,3.1,35,0.00,,---,0.00,VWS V14.01,2013-01-23 06:01:00,
2013-01-22 23:03:00,27.3,2.7,30.00,SSW,199,0.0,3.1,34,0.00,,---,0.00,VWS V14.01,2013-01-23 06:03:00,
2013-01-22 23:05:00,27.5,2.8,30.00,SSW,199,0.0,3.1,34,0.00,,---,0.00,VWS V14.01,2013-01-23 06:05:00,
2013-01-22 23:06:00,27.5,2.8,30.00,SSW,199,0.0,3.1,34,0.00,,---,0.00,VWS V14.01,2013-01-23 06:06:00,
2013-01-22 23:07:00,27.5,2.8,30.00,SSW,199,0.0,3.1,34,0.00,,---,0.00,VWS V14.01,2013-01-23 06:07:00,
2013-01-22 23:08:00,27.5,2.8,30.00,SSW,199,0.0,3.1,34,0.00,,---,0.00,VWS V14.01,2013-01-23 06:08:00,
2013-01-22 23:11:00,27.3,2.7,30.00,SSW,199,0.0,3.1,34,0.00,,---,0.00,VWS V14.01,2013-01-23 06:11:00,
2013-01-22 23:12:00,27.3,2.7,30.00,SSW,199,0.0,3.1,34,0.00,,---,0.00,VWS V14.01,2013-01-23 06:12:00,
2013-01-22 23:14:00,27.3,2.7,30.00,SSW,199,0.0,3.1,34,0.00,,---,0.00,VWS V14.01,2013-01-23 06:14:00,
2013-01-22 23:16:00,27.3,2.7,30.00,SSW,199,0.0,0.0,34,0.00,,---,0.00,VWS V14.01,2013-01-23 06:16:00,
2013-01-22 23:17:00,27.3,2.7,30.00,SSW,199,0.0,0.0,34,0.00,,---,0.00,VWS V14.01,2013-01-23 06:17:00,
2013-01-22 23:19:00,27.3,2.7,30.00,SSW,199,0.0,0.0,34,0.00,,---,0.00,VWS V14.01,2013-01-23 06:19:00,
2013-01-22 23:21:00,27.3,2.7,30.00,SSW,199,0.0,0.0,34,0.00,,---,0.00,VWS V14.01,2013-01-23 06:21:00,
2013-01-22 23:22:00,27.3,2.7,30.00,SSW,199,0.0,0.0,34,0.00,,---,0.00,VWS V14.01,2013-01-23 06:22:00,
2013-01-22 23:24:00,27.3,2.7,30.00,SSW,199,0.0,0.0,34,0.00,,---,0.00,VWS V14.01,2013-01-23 06:24:00,
2013-01-22 23:26:00,27.5,2.8,30.00,SSW,199,0.0,0.0,34,0.00,,---,0.00,VWS V14.01,2013-01-23 06:26:00,
2013-01-22 23:27:00,27.5,2.2,30.00,SSW,199,0.0,0.0,33,0.00,,---,0.00,VWS V14.01,2013-01-23 06:27:00,
2013-01-22 23:30:00,27.5,2.2,30.00,SSW,199,0.0,0.0,33,0.00,,---,0.00,VWS V14.01,2013-01-23 06:30:00,
2013-01-22 23:32:00,27.7,2.3,30.00,SSW,199,0.0,0.0,33,0.00,,---,0.00,VWS V14.01,2013-01-23 06:32:00,
2013-01-22 23:33:00,27.7,2.3,30.00,SSW,199,0.0,0.0,33,0.00,,---,0.00,VWS V14.01,2013-01-23 06:33:00,
2013-01-22 23:35:00,27.7,2.3,30.00,SSW,199,0.0,0.0,33,0.00,,---,0.00,VWS V14.01,2013-01-23 06:35:00,
2013-01-22 23:37:00,27.9,2.5,30.00,SSW,199,0.0,0.0,33,0.00,,---,0.00,VWS V14.01,2013-01-23 06:37:00,
2013-01-22 23:38:00,27.9,2.5,30.00,SSW,199,0.0,0.0,33,0.00,,---,0.00,VWS V14.01,2013-01-23 06:38:00,
2013-01-22 23:40:00,27.7,3.0,30.00,SSW,199,0.0,2.2,34,0.00,,---,0.00,VWS V14.01,2013-01-23 06:40:00,
2013-01-22 23:42:00,27.7,3.0,30.00,SSW,199,0.0,2.7,34,0.00,,---,0.00,VWS V14.01,2013-01-23 06:42:00,
2013-01-22 23:43:00,27.7,3.0,30.00,SSW,199,3.1,3.1,34,0.00,,---,0.00,VWS V14.01,2013-01-23 06:43:00,
2013-01-22 23:45:00,27.5,2.8,30.00,SSW,199,2.2,2.2,34,0.00,,---,0.00,VWS V14.01,2013-01-23 06:45:00,
2013-01-22 23:47:00,27.5,2.8,30.00,SSW,199,0.0,2.7,34,0.00,,---,0.00,VWS V14.01,2013-01-23 06:47:00,
2013-01-22 23:48:00,27.5,2.8,30.00,SSW,199,0.0,2.7,34,0.00,,---,0.00,VWS V14.01,2013-01-23 06:48:00,
2013-01-22 23:51:00,27.7,3.0,30.00,SSW,199,0.0,2.7,34,0.00,,---,0.00,VWS V14.01,2013-01-23 06:51:00,
2013-01-22 23:52:00,27.7,3.0,30.00,SSW,199,0.0,2.7,34,0.00,,---,0.00,VWS V14.01,2013-01-23 06:52:00,
2013-01-22 23:53:00,27.5,2.8,30.00,SSW,199,0.0,2.7,34,0.00,,---,0.00,VWS V14.01,2013-01-23 06:53:00,
2013-01-22 23:57:00,27.3,2.7,30.00,SSW,199,0.0,2.7,34,0.00,,---,0.00,VWS V14.01,2013-01-23 06:57:00,
2013-01-22 23:58:00,27.3,2.7,30.00,SSW,199,0.0,2.7,34,0.00,,---,0.00,VWS V14.01,2013-01-23 06:58:00,
2013-01-22 23:59:00,27.3,2.7,30.00,SSW,199,0.0,2.7,34,0.00,,---,0.00,VWS V14.01,2013-01-23 06:59:00,